Wetterdaten: aktuell Sonntag, 20.10.2019 19:08
Datum Zeit Temp. I. Temp. 2m Temp. 5cm Temp. Lager Temp. Wr Temp. Cafe Feuchte I. Feuchte 2m LF Lager Feuchte Wr Feuchte Cafe Luftdruck Regen Wind Richtung Richtung Taupunkt Windchill Windben
20.10.2019 19:08 12,8 C 11,1 C 9,9 C 11,1 C 12,3 C 13,4 C 77 % 91 % 89 % 95 % 86 % 1015,5 hPa 0,0 l/m 5,0 km/h (1 Bft) O-NO 67 9,7 C 11,1 C 7,5 km/h (2 Bft)
20.10.2019 19:06 12,8 C 11,1 C 10,0 C 11,1 C 12,3 C 13,4 C 77 % 91 % 89 % 95 % 86 % 1015,5 hPa 0,0 l/m 5,3 km/h (1 Bft) O-NO 67 9,7 C 11,1 C 7,7 km/h (2 Bft)
20.10.2019 19:04 12,9 C 11,3 C 9,9 C 11,1 C 12,2 C 13,4 C 77 % 91 % 89 % 95 % 86 % 1015,5 hPa 0,0 l/m 5,6 km/h (1 Bft) O-SO 112 9,9 C 11,3 C 7,7 km/h (2 Bft)
20.10.2019 19:02 12,9 C 11,3 C 9,9 C 11,1 C 12,2 C 13,5 C 77 % 91 % 89 % 95 % 86 % 1015,5 hPa 0,0 l/m 6,0 km/h (2 Bft) O-NO 67 9,9 C 11,3 C 10,4 km/h (2 Bft)
20.10.2019 19:00 12,9 C 11,4 C 10,0 C 11,1 C 12,3 C 13,5 C 77 % 91 % 89 % 95 % 86 % 1015,5 hPa 0,0 l/m 6,0 km/h (2 Bft) O-NO 67 10,0 C 11,4 C 13,8 km/h (3 Bft)
20.10.2019 18:58 12,8 C 11,4 C 10,1 C 11,1 C 12,2 C 13,4 C 77 % 91 % 89 % 95 % 86 % 1015,8 hPa 0,0 l/m 5,6 km/h (1 Bft) O-NO 67 10,0 C 11,4 C 13,8 km/h (3 Bft)
20.10.2019 18:56 12,8 C 11,4 C 10,2 C 11,1 C 12,2 C 13,4 C 77 % 91 % 89 % 95 % 86 % 1015,8 hPa 0,0 l/m 5,0 km/h (1 Bft) O-NO 67 10,0 C 11,4 C 11,6 km/h (2 Bft)
20.10.2019 18:54 13,0 C 11,5 C 10,2 C 11,1 C 12,2 C 13,4 C 76 % 90 % 89 % 95 % 86 % 1015,8 hPa 0,0 l/m 4,8 km/h (1 Bft) O 90 9,9 C 11,5 C 11,6 km/h (2 Bft)
20.10.2019 18:52 13,0 C 11,5 C 10,1 C 11,1 C 12,2 C 13,5 C 76 % 90 % 89 % 95 % 86 % 1015,8 hPa 0,0 l/m 4,2 km/h (1 Bft) O 90 9,9 C 11,5 C 9,7 km/h (2 Bft)
20.10.2019 18:50 13,0 C 11,5 C 10,2 C 11,1 C 12,2 C 13,5 C 76 % 90 % 89 % 95 % 86 % 1015,8 hPa 0,0 l/m 3,7 km/h (1 Bft) O-NO 67 9,9 C 11,5 C 8,4 km/h (2 Bft)
20.10.2019 18:48 13,0 C 11,5 C 10,3 C 11,1 C 12,3 C 13,4 C 76 % 90 % 89 % 95 % 86 % 1015,8 hPa 0,0 l/m 3,5 km/h (1 Bft) O-SO 112 9,9 C 11,5 C 8,0 km/h (2 Bft)
20.10.2019 18:46 12,9 C 11,5 C 10,3 C 11,1 C 12,2 C 13,5 C 76 % 89 % 89 % 95 % 86 % 1015,8 hPa 0,0 l/m 3,4 km/h (1 Bft) O-SO 112 9,8 C 11,5 C 7,7 km/h (2 Bft)
20.10.2019 18:44 12,9 C 11,6 C 10,2 C 11,1 C 12,2 C 13,5 C 76 % 89 % 89 % 95 % 86 % 1015,8 hPa 0,0 l/m 3,2 km/h (1 Bft) O-SO 112 9,8 C 11,6 C 7,7 km/h (2 Bft)
20.10.2019 18:42 13,1 C 11,6 C 9,9 C 11,1 C 12,2 C 13,5 C 76 % 89 % 89 % 95 % 86 % 1015,8 hPa 0,0 l/m 3,2 km/h (1 Bft) O 90 9,8 C 11,6 C 5,6 km/h (1 Bft)
20.10.2019 18:40 13,1 C 11,7 C 10,1 C 11,1 C 12,3 C 13,4 C 76 % 89 % 89 % 95 % 86 % 1015,8 hPa 0,0 l/m 3,1 km/h (1 Bft) O 90 9,9 C 11,7 C 7,0 km/h (2 Bft)
20.10.2019 18:38 13,1 C 11,7 C 10,2 C 11,1 C 12,2 C 13,5 C 76 % 89 % 89 % 95 % 86 % 1015,8 hPa 0,0 l/m 2,9 km/h (1 Bft) O 90 9,9 C 11,7 C 7,0 km/h (2 Bft)
20.10.2019 18:36 13,1 C 11,7 C 10,2 C 11,1 C 12,2 C 13,5 C 76 % 89 % 89 % 95 % 86 % 1015,8 hPa 0,0 l/m 2,7 km/h (1 Bft) O 90 9,9 C 11,7 C 5,1 km/h (1 Bft)
20.10.2019 18:34 13,2 C 11,8 C 10,5 C 11,1 C 12,3 C 13,5 C 76 % 89 % 89 % 95 % 86 % 1015,8 hPa 0,0 l/m 2,7 km/h (1 Bft) O-SO 112 10,0 C 11,8 C 6,5 km/h (2 Bft)
20.10.2019 18:32 13,2 C 11,8 C 10,3 C 11,1 C 12,2 C 13,5 C 76 % 89 % 89 % 95 % 86 % 1015,8 hPa 0,0 l/m 2,6 km/h (1 Bft) O 90 10,0 C 11,8 C 6,5 km/h (2 Bft)
20.10.2019 18:30 13,2 C 11,8 C 10,2 C 11,1 C 12,3 C 13,5 C 76 % 89 % 89 % 95 % 86 % 1015,8 hPa 0,0 l/m 2,6 km/h (1 Bft) O-NO 67 10,0 C 11,8 C 4,3 km/h (1 Bft)
20.10.2019 18:28 13,2 C 11,9 C 10,3 C 11,1 C 12,3 C 13,5 C 76 % 89 % 89 % 95 % 86 % 1015,8 hPa 0,0 l/m 2,4 km/h (1 Bft) O-NO 67 10,1 C 11,9 C 5,6 km/h (1 Bft)
20.10.2019 18:26 13,2 C 11,9 C 10,5 C 11,1 C 12,2 C 13,5 C 76 % 88 % 89 % 95 % 86 % 1015,8 hPa 0,0 l/m 2,6 km/h (1 Bft) O 90 10,0 C 11,9 C 5,6 km/h (1 Bft)
20.10.2019 18:24 13,1 C 12,0 C 10,5 C 11,1 C 12,3 C 13,4 C 76 % 88 % 89 % 95 % 86 % 1015,8 hPa 0,0 l/m 2,6 km/h (1 Bft) O-SO 112 10,1 C 12,0 C 5,3 km/h (1 Bft)
20.10.2019 18:22 13,1 C 12,0 C 10,5 C 11,1 C 12,3 C 13,4 C 76 % 88 % 89 % 95 % 86 % 1015,8 hPa 0,0 l/m 2,7 km/h (1 Bft) O 90 10,1 C 12,0 C 8,7 km/h (2 Bft)
20.10.2019 18:20 13,3 C 12,0 C 10,5 C 11,1 C 12,3 C 13,5 C 76 % 87 % 89 % 95 % 86 % 1015,8 hPa 0,0 l/m 2,7 km/h (1 Bft) O-SO 112 9,9 C 12,0 C 8,7 km/h (2 Bft)
20.10.2019 18:18 13,3 C 12,1 C 10,3 C 11,1 C 12,2 C 13,5 C 76 % 87 % 89 % 95 % 86 % 1015,8 hPa 0,0 l/m 3,1 km/h (1 Bft) O-NO 67 10,0 C 12,1 C 4,8 km/h (1 Bft)
20.10.2019 18:16 13,2 C 12,1 C 10,6 C 11,1 C 12,3 C 13,4 C 76 % 87 % 89 % 95 % 86 % 1015,8 hPa 0,0 l/m 3,5 km/h (1 Bft) S-SW 202 10,0 C 12,1 C 5,6 km/h (1 Bft)
20.10.2019 18:14 13,2 C 12,2 C 10,9 C 11,1 C 12,3 C 13,5 C 76 % 87 % 89 % 95 % 86 % 1015,8 hPa 0,0 l/m 3,9 km/h (1 Bft) O-NO 67 10,1 C 12,2 C 7,5 km/h (2 Bft)
20.10.2019 18:12 13,4 C 12,2 C 11,0 C 11,1 C 12,3 C 13,5 C 76 % 87 % 89 % 95 % 86 % 1015,8 hPa 0,0 l/m 4,3 km/h (1 Bft) O-NO 67 10,1 C 12,2 C 7,5 km/h (2 Bft)
20.10.2019 18:10 13,4 C 12,2 C 11,0 C 11,1 C 12,3 C 13,5 C 76 % 87 % 89 % 95 % 86 % 1015,8 hPa 0,0 l/m 4,2 km/h (1 Bft) O 90 10,1 C 12,2 C 7,2 km/h (2 Bft)
20.10.2019 18:08 13,4 C 12,3 C 11,0 C 11,1 C 12,3 C 13,5 C 76 % 87 % 89 % 95 % 86 % 1015,8 hPa 0,0 l/m 4,3 km/h (1 Bft) SO 135 10,2 C 12,3 C 8,9 km/h (2 Bft)
20.10.2019 18:06 13,4 C 12,3 C 11,1 C 11,1 C 12,3 C 13,4 C 76 % 87 % 89 % 95 % 86 % 1015,8 hPa 0,0 l/m 4,7 km/h (1 Bft) O 90 10,2 C 12,3 C 8,9 km/h (2 Bft)
20.10.2019 18:04 13,4 C 12,4 C 11,2 C 11,1 C 12,3 C 13,4 C 76 % 87 % 89 % 95 % 86 % 1015,8 hPa 0,0 l/m 4,8 km/h (1 Bft) O 90 10,3 C 12,4 C 10,6 km/h (2 Bft)
20.10.2019 18:02 13,3 C 12,4 C 11,2 C 11,1 C 12,3 C 13,4 C 76 % 87 % 89 % 95 % 86 % 1015,8 hPa 0,0 l/m 4,7 km/h (1 Bft) O-SO 112 10,3 C 12,4 C 10,6 km/h (2 Bft)
20.10.2019 18:00 13,3 C 12,4 C 11,3 C 11,1 C 12,3 C 13,4 C 76 % 87 % 89 % 95 % 86 % 1015,8 hPa 0,0 l/m 4,3 km/h (1 Bft) O 90 10,3 C 12,4 C 7,0 km/h (2 Bft)
20.10.2019 17:58 13,5 C 12,5 C 11,4 C 11,1 C 12,3 C 13,5 C 76 % 87 % 89 % 95 % 86 % 1015,8 hPa 0,0 l/m 4,3 km/h (1 Bft) O 90 10,4 C 12,5 C 8,0 km/h (2 Bft)
20.10.2019 17:56 13,5 C 12,5 C 11,4 C 11,1 C 12,3 C 13,5 C 76 % 87 % 89 % 95 % 86 % 1015,8 hPa 0,0 l/m 4,3 km/h (1 Bft) O-NO 67 10,4 C 12,5 C 8,9 km/h (2 Bft)
20.10.2019 17:54 13,4 C 12,6 C 11,4 C 11,1 C 12,3 C 13,5 C 76 % 86 % 89 % 95 % 86 % 1015,8 hPa 0,0 l/m 4,3 km/h (1 Bft) O-NO 67 10,3 C 12,6 C 8,9 km/h (2 Bft)
20.10.2019 17:52 13,4 C 12,7 C 11,4 C 11,1 C 12,3 C 13,5 C 76 % 86 % 89 % 95 % 86 % 1015,8 hPa 0,0 l/m 4,2 km/h (1 Bft) O 90 10,4 C 12,7 C 5,8 km/h (2 Bft)
20.10.2019 17:50 13,6 C 12,7 C 11,5 C 11,1 C 12,3 C 13,4 C 76 % 86 % 89 % 95 % 87 % 1015,8 hPa 0,0 l/m 4,2 km/h (1 Bft) O 90 10,4 C 12,7 C 7,0 km/h (2 Bft)
20.10.2019 17:48 13,6 C 12,7 C 11,6 C 11,1 C 12,3 C 13,4 C 76 % 86 % 89 % 95 % 87 % 1015,8 hPa 0,0 l/m 4,2 km/h (1 Bft) O-NO 67 10,4 C 12,7 C 9,4 km/h (2 Bft)
20.10.2019 17:46 13,6 C 12,9 C 11,7 C 11,1 C 12,3 C 13,4 C 76 % 86 % 89 % 95 % 87 % 1015,8 hPa 0,0 l/m 4,0 km/h (1 Bft) O-NO 67 10,6 C 12,9 C 9,4 km/h (2 Bft)
20.10.2019 17:44 13,6 C 12,9 C 11,7 C 11,1 C 12,3 C 13,4 C 76 % 86 % 89 % 95 % 87 % 1015,8 hPa 0,0 l/m 3,7 km/h (1 Bft) O-SO 112 10,6 C 12,9 C 7,5 km/h (2 Bft)
20.10.2019 17:42 13,6 C 13,0 C 11,7 C 11,1 C 12,3 C 13,5 C 76 % 85 % 89 % 95 % 87 % 1015,8 hPa 0,0 l/m 3,7 km/h (1 Bft) O 90 10,5 C 13,0 C 7,5 km/h (2 Bft)
20.10.2019 17:40 13,6 C 12,9 C 11,9 C 11,1 C 12,3 C 13,4 C 76 % 85 % 89 % 95 % 87 % 1015,8 hPa 0,0 l/m 3,2 km/h (1 Bft) O-NO 67 10,4 C 12,9 C 6,8 km/h (2 Bft)
20.10.2019 17:38 13,6 C 13,0 C 12,0 C 11,1 C 12,3 C 13,4 C 76 % 85 % 89 % 95 % 87 % 1015,9 hPa 0,0 l/m 3,4 km/h (1 Bft) O 90 10,5 C 13,0 C 6,8 km/h (2 Bft)
20.10.2019 17:36 13,6 C 13,0 C 12,0 C 11,1 C 12,3 C 13,3 C 76 % 84 % 89 % 95 % 87 % 1015,9 hPa 0,0 l/m 3,2 km/h (1 Bft) O-NO 67 10,4 C 13,0 C 6,3 km/h (2 Bft)
20.10.2019 17:34 13,6 C 13,0 C 12,1 C 11,1 C 12,3 C 13,3 C 76 % 84 % 89 % 95 % 87 % 1015,9 hPa 0,0 l/m 3,4 km/h (1 Bft) O-NO 67 10,4 C 13,0 C 6,3 km/h (2 Bft)
20.10.2019 17:32 13,7 C 13,1 C 12,2 C 11,1 C 12,3 C 13,4 C 76 % 84 % 89 % 95 % 87 % 1015,9 hPa 0,0 l/m 3,2 km/h (1 Bft) O-NO 67 10,5 C 13,1 C 7,0 km/h (2 Bft)
20.10.2019 17:30 13,7 C 13,1 C 12,3 C 11,2 C 12,3 C 13,4 C 76 % 84 % 89 % 95 % 87 % 1015,9 hPa 0,0 l/m 3,1 km/h (1 Bft) O-SO 112 10,5 C 13,1 C 7,0 km/h (2 Bft)
20.10.2019 17:28 13,6 C 13,2 C 12,5 C 11,1 C 12,3 C 13,4 C 76 % 84 % 89 % 95 % 87 % 1015,9 hPa 0,0 l/m 3,2 km/h (1 Bft) O-SO 112 10,6 C 13,2 C 5,6 km/h (1 Bft)
20.10.2019 17:26 13,6 C 13,2 C 12,5 C 11,1 C 12,3 C 13,3 C 76 % 84 % 89 % 95 % 87 % 1015,9 hPa 0,0 l/m 3,2 km/h (1 Bft) O-NO 67 10,6 C 13,2 C 5,6 km/h (1 Bft)
20.10.2019 17:24 13,6 C 13,3 C 12,7 C 11,1 C 12,3 C 13,3 C 76 % 84 % 89 % 95 % 87 % 1015,9 hPa 0,0 l/m 3,1 km/h (1 Bft) O-NO 67 10,7 C 13,3 C 6,3 km/h (2 Bft)
20.10.2019 17:22 13,6 C 13,3 C 12,7 C 11,1 C 12,3 C 13,3 C 76 % 83 % 89 % 95 % 87 % 1015,9 hPa 0,0 l/m 3,1 km/h (1 Bft) SO 135 10,5 C 13,3 C 6,3 km/h (2 Bft)
20.10.2019 17:20 13,8 C 13,4 C 12,8 C 11,1 C 12,3 C 13,3 C 76 % 83 % 89 % 95 % 87 % 1015,9 hPa 0,0 l/m 3,1 km/h (1 Bft) O-SO 112 10,6 C 13,4 C 9,7 km/h (2 Bft)
20.10.2019 17:18 13,8 C 13,4 C 13,0 C 11,1 C 12,2 C 13,3 C 76 % 83 % 89 % 95 % 87 % 1015,8 hPa 0,0 l/m 3,4 km/h (1 Bft) SO 135 10,6 C 13,4 C 9,7 km/h (2 Bft)
20.10.2019 17:16 13,6 C 13,5 C 13,0 C 11,1 C 12,3 C 13,3 C 76 % 83 % 89 % 95 % 87 % 1015,8 hPa 0,0 l/m 3,2 km/h (1 Bft) SO 135 10,7 C 13,5 C 8,0 km/h (2 Bft)
20.10.2019 17:14 13,8 C 13,5 C 13,2 C 11,2 C 12,2 C 13,3 C 76 % 83 % 89 % 95 % 87 % 1015,8 hPa 0,0 l/m 2,7 km/h (1 Bft) O-SO 112 10,7 C 13,5 C 6,5 km/h (2 Bft)
20.10.2019 17:12 13,8 C 13,6 C 13,4 C 11,1 C 12,2 C 13,3 C 76 % 83 % 89 % 95 % 87 % 1015,8 hPa 0,0 l/m 2,7 km/h (1 Bft) O 90 10,8 C 13,6 C 6,5 km/h (2 Bft)
20.10.2019 17:10 13,8 C 13,6 C 13,5 C 11,2 C 12,3 C 13,3 C 76 % 83 % 89 % 95 % 87 % 1015,8 hPa 0,0 l/m 2,7 km/h (1 Bft) O-SO 112 10,8 C 13,6 C 5,1 km/h (1 Bft)
20.10.2019 17:08 13,8 C 13,6 C 13,6 C 11,1 C 12,3 C 13,3 C 76 % 83 % 89 % 95 % 87 % 1015,8 hPa 0,0 l/m 2,4 km/h (1 Bft) O-SO 112 10,8 C 13,6 C 5,8 km/h (2 Bft)
20.10.2019 17:06 13,8 C 13,7 C 13,8 C 11,2 C 12,2 C 13,3 C 76 % 83 % 89 % 95 % 87 % 1015,8 hPa 0,0 l/m 2,6 km/h (1 Bft) O-SO 112 10,9 C 13,7 C 5,8 km/h (2 Bft)
20.10.2019 17:04 13,8 C 13,7 C 13,9 C 11,2 C 12,2 C 13,3 C 76 % 83 % 89 % 95 % 87 % 1015,8 hPa 0,0 l/m 2,7 km/h (1 Bft) O-NO 67 10,9 C 13,7 C 5,1 km/h (1 Bft)
20.10.2019 17:02 13,8 C 13,7 C 14,0 C 11,2 C 12,2 C 13,3 C 76 % 83 % 89 % 95 % 87 % 1015,8 hPa 0,0 l/m 2,6 km/h (1 Bft) O-SO 112 10,9 C 13,7 C 5,1 km/h (1 Bft)
20.10.2019 17:00 13,8 C 13,8 C 14,1 C 11,2 C 12,3 C 13,3 C 76 % 83 % 89 % 95 % 87 % 1015,8 hPa 0,0 l/m 2,4 km/h (1 Bft) SO 135 11,0 C 13,8 C 4,3 km/h (1 Bft)
20.10.2019 16:58 13,8 C 13,8 C 14,3 C 11,2 C 12,3 C 13,3 C 76 % 83 % 89 % 95 % 87 % 1015,7 hPa 0,0 l/m 2,4 km/h (1 Bft) O-SO 112 11,0 C 13,8 C 6,8 km/h (2 Bft)
20.10.2019 16:56 13,8 C 13,8 C 14,4 C 11,2 C 12,2 C 13,3 C 76 % 83 % 89 % 95 % 87 % 1015,7 hPa 0,0 l/m 2,4 km/h (1 Bft) O-NO 67 11,0 C 13,8 C 6,8 km/h (2 Bft)
20.10.2019 16:54 13,8 C 13,8 C 14,6 C 11,2 C 12,2 C 13,3 C 76 % 83 % 89 % 95 % 87 % 1015,7 hPa 0,0 l/m 2,3 km/h (1 Bft) SO 135 11,0 C 13,8 C 6,5 km/h (2 Bft)
20.10.2019 16:52 13,8 C 13,8 C 14,7 C 11,1 C 12,2 C 13,2 C 76 % 83 % 89 % 95 % 87 % 1015,7 hPa 0,0 l/m 2,4 km/h (1 Bft) O-NO 67 11,0 C 13,8 C 5,8 km/h (2 Bft)
20.10.2019 16:50 13,9 C 13,8 C 14,7 C 11,2 C 12,2 C 13,2 C 76 % 83 % 89 % 95 % 87 % 1015,7 hPa 0,0 l/m 2,6 km/h (1 Bft) O-SO 112 11,0 C 13,8 C 4,6 km/h (1 Bft)
20.10.2019 16:48 13,8 C 13,8 C 14,8 C 11,2 C 12,2 C 13,2 C 76 % 83 % 89 % 95 % 87 % 1015,7 hPa 0,0 l/m 2,9 km/h (1 Bft) N-NW 337 11,0 C 13,8 C 5,6 km/h (1 Bft)
20.10.2019 16:46 13,9 C 13,9 C 14,7 C 11,2 C 12,2 C 13,2 C 76 % 82 % 89 % 95 % 87 % 1015,7 hPa 0,0 l/m 3,2 km/h (1 Bft) O-SO 112 10,9 C 13,9 C 8,2 km/h (2 Bft)
20.10.2019 16:44 13,9 C 13,9 C 14,6 C 11,2 C 12,2 C 13,2 C 76 % 82 % 89 % 95 % 87 % 1015,7 hPa 0,0 l/m 3,7 km/h (1 Bft) O-NO 67 10,9 C 13,9 C 8,2 km/h (2 Bft)
20.10.2019 16:42 13,9 C 13,9 C 14,8 C 11,2 C 12,3 C 13,2 C 76 % 82 % 89 % 95 % 87 % 1015,7 hPa 0,0 l/m 3,2 km/h (1 Bft) O-SO 112 10,9 C 13,9 C 6,5 km/h (2 Bft)
20.10.2019 16:40 13,9 C 13,9 C 14,9 C 11,2 C 12,3 C 13,2 C 76 % 82 % 89 % 95 % 87 % 1015,7 hPa 0,0 l/m 3,1 km/h (1 Bft) O-NO 67 10,9 C 13,9 C 8,0 km/h (2 Bft)
20.10.2019 16:38 13,9 C 13,9 C 15,1 C 11,2 C 12,3 C 13,2 C 76 % 82 % 89 % 95 % 87 % 1015,6 hPa 0,0 l/m 3,1 km/h (1 Bft) O-NO 67 10,9 C 13,9 C 8,0 km/h (2 Bft)
20.10.2019 16:36 13,8 C 14,0 C 15,4 C 11,2 C 12,3 C 13,3 C 76 % 82 % 89 % 95 % 87 % 1015,6 hPa 0,0 l/m 2,7 km/h (1 Bft) O-NO 67 11,0 C 14,0 C 6,0 km/h (2 Bft)
20.10.2019 16:34 13,9 C 14,0 C 15,7 C 11,2 C 12,3 C 13,3 C 76 % 81 % 89 % 95 % 87 % 1015,6 hPa 0,0 l/m 2,1 km/h (1 Bft) O-SO 112 10,8 C 14,0 C 6,0 km/h (2 Bft)
20.10.2019 16:32 13,8 C 13,9 C 15,8 C 11,2 C 12,3 C 13,3 C 76 % 81 % 89 % 95 % 87 % 1015,6 hPa 0,0 l/m 1,9 km/h (1 Bft) O 90 10,7 C 13,9 C 4,8 km/h (1 Bft)
20.10.2019 16:30 13,8 C 14,0 C 15,8 C 11,2 C 12,3 C 13,3 C 76 % 81 % 89 % 95 % 87 % 1015,6 hPa 0,0 l/m 1,6 km/h (1 Bft) O-SO 112 10,8 C 14,0 C 4,8 km/h (1 Bft)
20.10.2019 16:28 13,8 C 14,0 C 16,2 C 11,2 C 12,3 C 13,3 C 76 % 81 % 89 % 95 % 87 % 1015,6 hPa 0,0 l/m 1,4 km/h (1 Bft) SO 135 10,8 C 14,0 C 3,6 km/h (1 Bft)
20.10.2019 16:26 13,8 C 14,1 C 16,5 C 11,2 C 12,3 C 13,2 C 76 % 81 % 89 % 95 % 87 % 1015,6 hPa 0,0 l/m 1,1 km/h (1 Bft) O-SO 112 10,9 C 14,1 C 3,4 km/h (1 Bft)
20.10.2019 16:24 13,8 C 14,1 C 16,6 C 11,2 C 12,3 C 13,2 C 76 % 81 % 89 % 95 % 87 % 1015,6 hPa 0,0 l/m 1,3 km/h (1 Bft) W-SW 247 10,9 C 14,1 C 2,4 km/h (1 Bft)
20.10.2019 16:22 13,8 C 14,0 C 16,8 C 11,2 C 12,3 C 13,2 C 76 % 81 % 89 % 95 % 87 % 1015,6 hPa 0,0 l/m 1,8 km/h (1 Bft) SO 135 10,8 C 14,0 C 4,1 km/h (1 Bft)
20.10.2019 16:20 13,8 C 14,0 C 17,0 C 11,2 C 12,3 C 13,2 C 76 % 81 % 89 % 95 % 87 % 1015,6 hPa 0,0 l/m 1,6 km/h (1 Bft) O-SO 112 10,8 C 14,0 C 4,1 km/h (1 Bft)
20.10.2019 16:18 13,8 C 13,9 C 16,9 C 11,3 C 12,3 C 13,1 C 76 % 80 % 89 % 95 % 87 % 1015,4 hPa 0,0 l/m 1,6 km/h (1 Bft) O-SO 112 10,5 C 13,9 C 3,9 km/h (1 Bft)
20.10.2019 16:16 13,8 C 14,0 C 17,7 C 11,2 C 12,3 C 13,1 C 76 % 80 % 89 % 95 % 87 % 1015,4 hPa 0,0 l/m 1,9 km/h (1 Bft) O 90 10,6 C 14,0 C 3,9 km/h (1 Bft)
20.10.2019 16:14 13,8 C 14,1 C 17,9 C 11,2 C 12,3 C 13,2 C 76 % 79 % 89 % 95 % 87 % 1015,4 hPa 0,0 l/m 2,4 km/h (1 Bft) O-SO 112 10,5 C 14,1 C 6,3 km/h (2 Bft)
20.10.2019 16:12 13,8 C 14,1 C 19,0 C 11,2 C 12,3 C 13,1 C 76 % 79 % 89 % 95 % 87 % 1015,4 hPa 0,0 l/m 2,7 km/h (1 Bft) O 90 10,5 C 14,1 C 6,3 km/h (2 Bft)
20.10.2019 16:10 13,8 C 14,2 C 19,8 C 11,3 C 12,3 C 13,1 C 76 % 79 % 89 % 95 % 87 % 1015,4 hPa 0,0 l/m 2,6 km/h (1 Bft) O-NO 67 10,6 C 14,2 C 2,4 km/h (1 Bft)
20.10.2019 16:08 13,8 C 14,1 C 19,5 C 11,2 C 12,3 C 13,1 C 76 % 79 % 89 % 95 % 87 % 1015,4 hPa 0,0 l/m 2,9 km/h (1 Bft) SO 135 10,5 C 14,1 C 5,8 km/h (2 Bft)
20.10.2019 16:06 13,6 C 14,2 C 19,3 C 11,2 C 12,3 C 13,1 C 76 % 80 % 89 % 95 % 87 % 1015,4 hPa 0,0 l/m 3,2 km/h (1 Bft) O-SO 112 10,8 C 14,2 C 10,4 km/h (2 Bft)
20.10.2019 16:04 13,6 C 14,2 C 19,0 C 11,2 C 12,2 C 13,1 C 76 % 80 % 89 % 95 % 87 % 1015,4 hPa 0,0 l/m 3,2 km/h (1 Bft) O-SO 112 10,8 C 14,2 C 10,4 km/h (2 Bft)
20.10.2019 16:02 13,6 C 14,1 C 18,6 C 11,2 C 12,3 C 13,1 C 76 % 80 % 89 % 95 % 87 % 1015,4 hPa 0,0 l/m 3,1 km/h (1 Bft) O-SO 112 10,7 C 14,1 C 6,3 km/h (2 Bft)
20.10.2019 16:00 13,7 C 14,0 C 18,2 C 11,2 C 12,3 C 13,0 C 76 % 80 % 89 % 95 % 87 % 1015,4 hPa 0,0 l/m 3,4 km/h (1 Bft) O-NO 67 10,6 C 14,0 C 4,8 km/h (1 Bft)
20.10.2019 15:58 13,6 C 13,9 C 18,3 C 11,2 C 12,3 C 13,0 C 76 % 80 % 89 % 95 % 87 % 1015,4 hPa 0,0 l/m 3,5 km/h (1 Bft) O-SO 112 10,5 C 13,9 C 6,3 km/h (2 Bft)
20.10.2019 15:56 13,6 C 13,9 C 18,5 C 11,3 C 12,3 C 13,0 C 76 % 81 % 89 % 95 % 87 % 1015,4 hPa 0,0 l/m 3,7 km/h (1 Bft) O-NO 67 10,7 C 13,9 C 6,8 km/h (2 Bft)
20.10.2019 15:54 13,6 C 13,9 C 18,7 C 11,2 C 12,3 C 13,1 C 76 % 80 % 89 % 95 % 87 % 1015,4 hPa 0,0 l/m 3,5 km/h (1 Bft) O-NO 67 10,5 C 13,9 C 6,8 km/h (2 Bft)
20.10.2019 15:52 13,6 C 14,0 C 19,0 C 11,2 C 12,3 C 13,1 C 76 % 81 % 89 % 95 % 87 % 1015,4 hPa 0,0 l/m 3,2 km/h (1 Bft) O-SO 112 10,8 C 14,0 C 9,2 km/h (2 Bft)
20.10.2019 15:50 13,6 C 13,9 C 19,1 C 11,2 C 12,3 C 13,1 C 76 % 81 % 89 % 95 % 87 % 1015,4 hPa 0,0 l/m 3,5 km/h (1 Bft) O-SO 112 10,7 C 13,9 C 9,7 km/h (2 Bft)
20.10.2019 15:48 13,6 C 13,9 C 19,1 C 11,2 C 12,3 C 13,1 C 76 % 81 % 89 % 95 % 87 % 1015,4 hPa 0,0 l/m 3,5 km/h (1 Bft) O-NO 67 10,7 C 13,9 C 9,7 km/h (2 Bft)
20.10.2019 15:46 13,6 C 13,9 C 18,7 C 11,2 C 12,3 C 13,1 C 76 % 82 % 89 % 95 % 87 % 1015,4 hPa 0,0 l/m 3,1 km/h (1 Bft) O-NO 67 10,9 C 13,9 C 6,8 km/h (2 Bft)
20.10.2019 15:44 13,6 C 13,7 C 18,5 C 11,2 C 12,2 C 13,1 C 76 % 82 % 89 % 95 % 87 % 1015,4 hPa 0,0 l/m 2,4 km/h (1 Bft) O-NO 67 10,7 C 13,7 C 4,1 km/h (1 Bft)
20.10.2019 15:42 13,6 C 13,6 C 17,9 C 11,2 C 12,2 C 13,0 C 76 % 82 % 89 % 95 % 87 % 1015,4 hPa 0,0 l/m 2,3 km/h (1 Bft) O-NO 67 10,6 C 13,6 C 9,2 km/h (2 Bft)
20.10.2019 15:40 13,4 C 13,6 C 18,5 C 11,2 C 12,3 C 13,1 C 76 % 81 % 89 % 95 % 87 % 1015,4 hPa 0,0 l/m 2,3 km/h (1 Bft) O-NO 67 10,4 C 13,6 C 9,2 km/h (2 Bft)
20.10.2019 15:38 13,4 C 13,6 C 19,1 C 11,3 C 12,3 C 13,0 C 76 % 80 % 89 % 95 % 87 % 1015,3 hPa 0,0 l/m 1,9 km/h (1 Bft) O 90 10,2 C 13,6 C 4,1 km/h (1 Bft)
20.10.2019 15:36 13,5 C 13,7 C 19,0 C 11,2 C 12,2 C 13,0 C 76 % 80 % 89 % 95 % 87 % 1015,3 hPa 0,0 l/m 2,1 km/h (1 Bft) NW 315 10,3 C 13,7 C 0,0 km/h (0 Bft)
20.10.2019 15:34 13,5 C 13,5 C 18,5 C 11,3 C 12,3 C 13,0 C 76 % 79 % 89 % 95 % 87 % 1015,3 hPa 0,0 l/m 2,7 km/h (1 Bft) SO 135 9,9 C 13,5 C 2,4 km/h (1 Bft)
20.10.2019 15:32 13,3 C 13,6 C 19,1 C 11,2 C 12,3 C 13,0 C 75 % 79 % 89 % 95 % 87 % 1015,3 hPa 0,0 l/m 3,4 km/h (1 Bft) O-SO 112 10,0 C 13,6 C 7,7 km/h (2 Bft)
20.10.2019 15:30 13,4 C 13,8 C 19,2 C 11,2 C 12,1 C 12,9 C 75 % 79 % 89 % 95 % 87 % 1015,3 hPa 0,0 l/m 3,2 km/h (1 Bft) O-SO 112 10,2 C 13,8 C 9,7 km/h (2 Bft)
20.10.2019 15:28 13,4 C 14,0 C 19,8 C 11,2 C 12,3 C 12,9 C 76 % 80 % 89 % 95 % 87 % 1015,3 hPa 0,0 l/m 2,9 km/h (1 Bft) SO 135 10,6 C 14,0 C 9,7 km/h (2 Bft)
20.10.2019 15:26 13,4 C 14,0 C 20,0 C 11,2 C 12,2 C 12,9 C 76 % 80 % 89 % 95 % 87 % 1015,3 hPa 0,0 l/m 2,7 km/h (1 Bft) SO 135 10,6 C 14,0 C 5,8 km/h (2 Bft)
20.10.2019 15:24 13,2 C 14,0 C 19,8 C 11,2 C 12,3 C 12,9 C 76 % 80 % 89 % 95 % 87 % 1015,3 hPa 0,0 l/m 2,7 km/h (1 Bft) SO 135 10,6 C 14,0 C 10,4 km/h (2 Bft)
20.10.2019 15:22 13,2 C 13,9 C 19,9 C 11,2 C 12,2 C 12,9 C 76 % 81 % 89 % 95 % 87 % 1015,3 hPa 0,0 l/m 2,1 km/h (1 Bft) SO 135 10,7 C 13,9 C 10,4 km/h (2 Bft)
20.10.2019 15:20 13,2 C 13,8 C 19,8 C 11,2 C 12,3 C 12,9 C 76 % 81 % 89 % 95 % 87 % 1015,3 hPa 0,0 l/m 2,1 km/h (1 Bft) O-SO 112 10,6 C 13,8 C 3,9 km/h (1 Bft)
20.10.2019 15:18 13,2 C 13,6 C 20,2 C 11,2 C 12,2 C 12,8 C 76 % 81 % 89 % 95 % 87 % 1015,1 hPa 0,0 l/m 2,6 km/h (1 Bft) O 90 10,4 C 13,6 C 4,6 km/h (1 Bft)
20.10.2019 15:16 13,3 C 13,5 C 20,1 C 11,2 C 12,3 C 12,8 C 76 % 80 % 89 % 95 % 87 % 1015,1 hPa 0,0 l/m 2,7 km/h (1 Bft) O-SO 112 10,1 C 13,5 C 7,2 km/h (2 Bft)
20.10.2019 15:14 13,1 C 13,6 C 20,0 C 11,2 C 12,2 C 12,8 C 76 % 82 % 89 % 95 % 87 % 1015,1 hPa 0,0 l/m 2,7 km/h (1 Bft) S 180 10,6 C 13,6 C 7,2 km/h (2 Bft)
20.10.2019 15:12 13,1 C 13,3 C 19,9 C 11,2 C 12,2 C 12,8 C 76 % 81 % 89 % 95 % 87 % 1015,1 hPa 0,0 l/m 2,7 km/h (1 Bft) S-SO 157 10,1 C 13,3 C 6,8 km/h (2 Bft)
20.10.2019 15:10 13,1 C 13,3 C 19,9 C 11,2 C 12,2 C 12,8 C 76 % 82 % 89 % 95 % 87 % 1015,1 hPa 0,0 l/m 2,7 km/h (1 Bft) SO 135 10,3 C 13,3 C 7,7 km/h (2 Bft)
20.10.2019 15:08 13,2 C 13,3 C 19,6 C 11,2 C 12,3 C 12,9 C 76 % 82 % 89 % 95 % 87 % 1015,1 hPa 0,0 l/m 2,3 km/h (1 Bft) O 90 10,3 C 13,3 C 7,7 km/h (2 Bft)
20.10.2019 15:06 13,2 C 13,3 C 19,1 C 11,2 C 12,3 C 12,8 C 76 % 82 % 89 % 95 % 87 % 1015,1 hPa 0,0 l/m 2,1 km/h (1 Bft) O-SO 112 10,3 C 13,3 C 5,8 km/h (2 Bft)
20.10.2019 15:04 13,2 C 13,4 C 18,9 C 11,2 C 12,3 C 12,9 C 76 % 83 % 89 % 95 % 87 % 1015,1 hPa 0,0 l/m 2,4 km/h (1 Bft) O-SO 112 10,6 C 13,4 C 5,8 km/h (2 Bft)
20.10.2019 15:02 13,2 C 13,4 C 18,5 C 11,2 C 12,3 C 12,8 C 76 % 84 % 89 % 95 % 87 % 1015,1 hPa 0,0 l/m 2,4 km/h (1 Bft) W 270 10,8 C 13,4 C 3,9 km/h (1 Bft)
20.10.2019 15:00 13,1 C 13,4 C 17,7 C 11,2 C 12,3 C 12,8 C 76 % 85 % 89 % 95 % 87 % 1015,1 hPa 0,0 l/m 2,9 km/h (1 Bft) O-NO 67 10,9 C 13,4 C 3,9 km/h (1 Bft)
20.10.2019 14:58 13,1 C 13,3 C 17,3 C 11,2 C 12,3 C 12,8 C 76 % 85 % 88 % 95 % 87 % 1014,8 hPa 0,0 l/m 3,4 km/h (1 Bft) W-NW 292 10,8 C 13,3 C 6,8 km/h (2 Bft)
20.10.2019 14:56 13,1 C 13,2 C 17,4 C 11,2 C 12,2 C 12,8 C 76 % 85 % 88 % 94 % 87 % 1014,8 hPa 0,0 l/m 3,7 km/h (1 Bft) O-SO 112 10,7 C 13,2 C 6,8 km/h (2 Bft)
20.10.2019 14:54 13,1 C 13,0 C 17,6 C 11,2 C 12,2 C 12,8 C 76 % 84 % 88 % 94 % 87 % 1014,8 hPa 0,0 l/m 3,7 km/h (1 Bft) O-NO 67 10,4 C 13,0 C 6,8 km/h (2 Bft)
20.10.2019 14:52 13,1 C 13,0 C 17,7 C 11,2 C 12,2 C 12,7 C 76 % 83 % 88 % 95 % 87 % 1014,8 hPa 0,0 l/m 3,4 km/h (1 Bft) SO 135 10,2 C 13,0 C 5,1 km/h (1 Bft)
20.10.2019 14:50 12,9 C 13,0 C 18,3 C 11,2 C 12,3 C 12,8 C 76 % 84 % 88 % 95 % 87 % 1014,8 hPa 0,0 l/m 3,2 km/h (1 Bft) SO 135 10,4 C 13,0 C 9,4 km/h (2 Bft)
20.10.2019 14:48 13,0 C 12,9 C 17,5 C 11,2 C 12,3 C 12,7 C 76 % 84 % 88 % 94 % 86 % 1014,8 hPa 0,0 l/m 2,9 km/h (1 Bft) O 90 10,3 C 12,9 C 9,4 km/h (2 Bft)
20.10.2019 14:46 13,0 C 13,0 C 17,6 C 11,2 C 12,3 C 12,7 C 76 % 84 % 88 % 95 % 86 % 1014,8 hPa 0,0 l/m 2,4 km/h (1 Bft) O-SO 112 10,4 C 13,0 C 6,5 km/h (2 Bft)
20.10.2019 14:44 13,0 C 13,0 C 17,8 C 11,2 C 12,3 C 12,7 C 76 % 84 % 88 % 95 % 86 % 1014,8 hPa 0,0 l/m 2,3 km/h (1 Bft) O-SO 112 10,4 C 13,0 C 5,6 km/h (1 Bft)
20.10.2019 14:42 12,8 C 12,9 C 17,5 C 11,2 C 12,3 C 12,7 C 76 % 84 % 88 % 94 % 86 % 1014,8 hPa 0,0 l/m 1,8 km/h (1 Bft) O-NO 67 10,3 C 12,9 C 6,8 km/h (2 Bft)
20.10.2019 14:40 12,8 C 13,0 C 17,3 C 11,2 C 12,3 C 12,7 C 76 % 84 % 88 % 94 % 86 % 1014,8 hPa 0,0 l/m 1,8 km/h (1 Bft) O 90 10,4 C 13,0 C 8,0 km/h (2 Bft)
20.10.2019 14:38 12,8 C 13,1 C 17,7 C 11,2 C 12,3 C 12,7 C 76 % 84 % 88 % 95 % 86 % 1015,1 hPa 0,0 l/m 1,4 km/h (1 Bft) O-NO 67 10,5 C 13,1 C 8,0 km/h (2 Bft)
20.10.2019 14:36 12,9 C 13,0 C 17,8 C 11,1 C 12,3 C 12,7 C 76 % 84 % 88 % 94 % 86 % 1015,1 hPa 0,0 l/m 1,1 km/h (1 Bft) S-SO 157 10,4 C 13,0 C 7,7 km/h (2 Bft)
20.10.2019 14:34 12,8 C 13,0 C 18,2 C 11,2 C 12,3 C 12,7 C 76 % 84 % 88 % 94 % 86 % 1015,1 hPa 0,0 l/m 1,1 km/h (1 Bft) S-SO 157 10,4 C 13,0 C 7,7 km/h (2 Bft)
20.10.2019 14:32 12,8 C 13,0 C 18,1 C 11,2 C 12,3 C 12,6 C 76 % 84 % 88 % 94 % 86 % 1015,1 hPa 0,0 l/m 1,4 km/h (1 Bft) O 90 10,4 C 13,0 C 4,8 km/h (1 Bft)
20.10.2019 14:30 12,8 C 13,0 C 18,1 C 11,2 C 12,2 C 12,6 C 76 % 85 % 88 % 94 % 86 % 1015,1 hPa 0,0 l/m 2,1 km/h (1 Bft) SO 135 10,5 C 13,0 C 5,8 km/h (2 Bft)
20.10.2019 14:28 12,8 C 12,9 C 18,2 C 11,2 C 12,2 C 12,7 C 76 % 85 % 88 % 95 % 85 % 1015,1 hPa 0,0 l/m 2,3 km/h (1 Bft) SO 135 10,4 C 12,9 C 5,8 km/h (2 Bft)
20.10.2019 14:26 12,8 C 12,9 C 18,8 C 11,2 C 12,3 C 12,7 C 76 % 85 % 88 % 94 % 85 % 1015,1 hPa 0,0 l/m 2,6 km/h (1 Bft) SO 135 10,4 C 12,9 C 3,4 km/h (1 Bft)
20.10.2019 14:24 12,6 C 12,9 C 19,0 C 11,1 C 12,2 C 12,7 C 76 % 85 % 88 % 94 % 85 % 1015,1 hPa 0,0 l/m 2,4 km/h (1 Bft) S 180 10,4 C 12,9 C 4,3 km/h (1 Bft)
20.10.2019 14:22 12,7 C 13,0 C 19,4 C 11,1 C 12,3 C 12,7 C 76 % 86 % 88 % 94 % 85 % 1015,1 hPa 0,0 l/m 2,4 km/h (1 Bft) S 180 10,7 C 13,0 C 8,2 km/h (2 Bft)
20.10.2019 14:20 12,6 C 12,7 C 19,6 C 11,2 C 12,2 C 12,7 C 76 % 86 % 88 % 95 % 85 % 1015,1 hPa 0,0 l/m 2,3 km/h (1 Bft) O-NO 67 10,4 C 12,7 C 8,2 km/h (2 Bft)
20.10.2019 14:18 12,6 C 12,7 C 19,3 C 11,1 C 12,2 C 12,7 C 76 % 85 % 88 % 94 % 85 % 1014,8 hPa 0,0 l/m 1,9 km/h (1 Bft) SO 135 10,2 C 12,7 C 7,0 km/h (2 Bft)
20.10.2019 14:16 12,6 C 13,0 C 19,6 C 11,2 C 12,1 C 12,7 C 76 % 86 % 88 % 94 % 85 % 1014,8 hPa 0,0 l/m 1,4 km/h (1 Bft) SO 135 10,7 C 13,0 C 7,0 km/h (2 Bft)
20.10.2019 14:14 12,4 C 12,9 C 19,4 C 11,2 C 12,3 C 12,6 C 76 % 87 % 88 % 94 % 85 % 1014,8 hPa 0,0 l/m 1,4 km/h (1 Bft) N-NW 337 10,8 C 12,9 C 3,1 km/h (1 Bft)
20.10.2019 14:12 12,4 C 12,6 C 19,3 C 11,1 C 12,3 C 12,6 C 76 % 87 % 88 % 94 % 85 % 1014,8 hPa 0,0 l/m 1,3 km/h (1 Bft) SW 225 10,5 C 12,6 C 3,1 km/h (1 Bft)
20.10.2019 14:10 12,5 C 12,6 C 19,5 C 11,1 C 12,3 C 12,6 C 76 % 87 % 88 % 94 % 85 % 1014,8 hPa 0,0 l/m 0,8 km/h (0 Bft) O-NO 67 10,5 C 12,6 C 3,9 km/h (1 Bft)
20.10.2019 14:08 12,3 C 12,4 C 19,5 C 11,1 C 12,1 C 12,6 C 76 % 87 % 88 % 94 % 85 % 1014,8 hPa 0,0 l/m 1,0 km/h (0 Bft) O 90 10,3 C 12,4 C 3,9 km/h (1 Bft)
20.10.2019 14:06 12,4 C 12,5 C 18,9 C 11,1 C 12,2 C 12,5 C 76 % 90 % 88 % 94 % 85 % 1014,8 hPa 0,0 l/m 1,0 km/h (0 Bft) W-SW 247 10,9 C 12,5 C 3,9 km/h (1 Bft)
20.10.2019 14:04 12,4 C 12,5 C 19,0 C 11,2 C 12,3 C 12,5 C 76 % 91 % 88 % 94 % 85 % 1014,8 hPa 0,0 l/m 1,0 km/h (0 Bft) O-SO 112 11,1 C 12,5 C 4,1 km/h (1 Bft)
20.10.2019 14:02 12,4 C 12,2 C 18,2 C 11,1 C 12,2 C 12,5 C 76 % 92 % 88 % 94 % 85 % 1014,8 hPa 0,0 l/m 1,1 km/h (1 Bft) S-SW 202 10,9 C 12,2 C 4,1 km/h (1 Bft)
20.10.2019 14:00 12,4 C 12,1 C 17,6 C 11,1 C 12,3 C 12,5 C 76 % 92 % 88 % 94 % 85 % 1014,8 hPa 0,0 l/m 1,4 km/h (1 Bft) S 180 10,8 C 12,1 C 3,1 km/h (1 Bft)
20.10.2019 13:58 12,3 C 11,9 C 17,8 C 11,1 C 12,2 C 12,5 C 76 % 93 % 88 % 95 % 85 % 1014,5 hPa 0,0 l/m 1,6 km/h (1 Bft) S-SW 202 10,8 C 11,9 C 4,1 km/h (1 Bft)
20.10.2019 13:56 12,3 C 11,9 C 17,9 C 11,1 C 12,2 C 12,5 C 76 % 94 % 88 % 94 % 85 % 1014,5 hPa 0,0 l/m 1,8 km/h (1 Bft) W-SW 247 11,0 C 11,9 C 4,1 km/h (1 Bft)
20.10.2019 13:54 12,1 C 11,9 C 18,7 C 11,2 C 12,3 C 12,5 C 76 % 95 % 88 % 94 % 85 % 1014,5 hPa 0,0 l/m 2,6 km/h (1 Bft) O-SO 112 11,1 C 11,9 C 3,9 km/h (1 Bft)
20.10.2019 13:52 12,2 C 11,7 C 17,4 C 11,1 C 12,2 C 12,5 C 76 % 95 % 88 % 94 % 85 % 1014,5 hPa 0,0 l/m 2,7 km/h (1 Bft) O-NO 67 10,9 C 11,7 C 4,8 km/h (1 Bft)
20.10.2019 13:50 12,2 C 11,5 C 16,8 C 11,1 C 12,3 C 12,5 C 76 % 95 % 88 % 94 % 85 % 1014,5 hPa 0,0 l/m 2,9 km/h (1 Bft) O-NO 67 10,7 C 11,5 C 5,1 km/h (1 Bft)
20.10.2019 13:48 12,2 C 11,5 C 17,7 C 11,2 C 12,3 C 12,5 C 76 % 96 % 88 % 94 % 85 % 1014,5 hPa 0,0 l/m 3,1 km/h (1 Bft) O-SO 112 10,9 C 11,5 C 5,1 km/h (1 Bft)
20.10.2019 13:46 12,1 C 11,5 C 18,8 C 11,1 C 12,3 C 12,5 C 76 % 96 % 88 % 94 % 85 % 1014,5 hPa 0,0 l/m 2,9 km/h (1 Bft) S-SO 157 10,9 C 11,5 C 7,7 km/h (2 Bft)
20.10.2019 13:44 12,1 C 11,5 C 18,6 C 11,2 C 12,2 C 12,5 C 76 % 97 % 88 % 94 % 85 % 1014,5 hPa 0,0 l/m 2,7 km/h (1 Bft) O-SO 112 11,0 C 11,5 C 7,7 km/h (2 Bft)
20.10.2019 13:42 11,9 C 11,6 C 18,4 C 11,1 C 12,2 C 12,5 C 76 % 97 % 88 % 95 % 85 % 1014,5 hPa 0,0 l/m 2,6 km/h (1 Bft) O-NO 67 11,1 C 11,6 C 4,3 km/h (1 Bft)
20.10.2019 13:40 11,9 C 11,5 C 17,4 C 11,1 C 12,2 C 12,5 C 76 % 98 % 88 % 94 % 85 % 1014,5 hPa 0,0 l/m 2,6 km/h (1 Bft) NO 45 11,2 C 11,5 C 5,1 km/h (1 Bft)
20.10.2019 13:38 11,9 C 11,4 C 17,2 C 11,1 C 12,1 C 12,5 C 76 % 98 % 88 % 94 % 85 % 1014,5 hPa 0,0 l/m 2,9 km/h (1 Bft) N-NO 22 11,1 C 11,4 C 5,1 km/h (1 Bft)
20.10.2019 13:36 12,0 C 11,0 C 16,5 C 11,1 C 12,2 C 12,4 C 76 % 98 % 88 % 94 % 85 % 1014,5 hPa 0,0 l/m 3,2 km/h (1 Bft) O 90 10,7 C 11,0 C 3,9 km/h (1 Bft)
20.10.2019 13:34 12,0 C 10,9 C 16,2 C 11,1 C 12,2 C 12,5 C 76 % 99 % 88 % 94 % 85 % 1014,5 hPa 0,0 l/m 3,4 km/h (1 Bft) O-NO 67 10,7 C 10,9 C 5,1 km/h (1 Bft)
20.10.2019 13:32 12,0 C 10,9 C 16,0 C 11,1 C 12,2 C 12,4 C 76 % 99 % 88 % 94 % 85 % 1014,5 hPa 0,0 l/m 3,9 km/h (1 Bft) N-NO 22 10,7 C 10,9 C 5,3 km/h (1 Bft)
20.10.2019 13:30 12,0 C 10,8 C 15,6 C 11,1 C 12,1 C 12,5 C 76 % 99 % 88 % 94 % 85 % 1014,5 hPa 0,0 l/m 3,9 km/h (1 Bft) NO 45 10,6 C 10,8 C 8,0 km/h (2 Bft)
20.10.2019 13:28 11,8 C 10,7 C 15,5 C 11,1 C 12,1 C 12,4 C 77 % 99 % 88 % 94 % 85 % 1014,5 hPa 0,0 l/m 4,0 km/h (1 Bft) NO 45 10,5 C 10,7 C 8,0 km/h (2 Bft)
20.10.2019 13:26 11,9 C 10,7 C 15,5 C 11,1 C 12,2 C 12,4 C 77 % 99 % 88 % 94 % 85 % 1014,5 hPa 0,0 l/m 3,9 km/h (1 Bft) O-SO 112 10,5 C 10,7 C 7,7 km/h (2 Bft)
20.10.2019 13:24 11,9 C 10,7 C 15,7 C 11,1 C 12,1 C 12,4 C 77 % 99 % 88 % 94 % 85 % 1014,5 hPa 0,0 l/m 3,7 km/h (1 Bft) NO 45 10,5 C 10,7 C 6,8 km/h (2 Bft)
20.10.2019 13:22 11,8 C 10,7 C 16,6 C 11,1 C 12,3 C 12,4 C 77 % 99 % 88 % 94 % 85 % 1014,5 hPa 0,0 l/m 4,3 km/h (1 Bft) O-SO 112 10,5 C 10,7 C 6,8 km/h (2 Bft)
20.10.2019 13:20 11,8 C 10,7 C 16,9 C 11,1 C 12,3 C 12,4 C 77 % 99 % 88 % 94 % 85 % 1014,5 hPa 0,0 l/m 4,3 km/h (1 Bft) O-NO 67 10,5 C 10,7 C 6,3 km/h (2 Bft)
20.10.2019 13:18 11,8 C 10,7 C 16,9 C 11,1 C 12,2 C 12,4 C 77 % 99 % 88 % 94 % 85 % 1014,5 hPa 0,0 l/m 4,3 km/h (1 Bft) O-SO 112 10,5 C 10,7 C 6,0 km/h (2 Bft)
20.10.2019 13:16 11,8 C 10,7 C 16,8 C 11,1 C 12,1 C 12,4 C 77 % 99 % 88 % 94 % 85 % 1014,5 hPa 0,0 l/m 5,0 km/h (1 Bft) O 90 10,5 C 10,7 C 6,3 km/h (2 Bft)
20.10.2019 13:14 11,8 C 10,7 C 16,5 C 11,1 C 12,1 C 12,4 C 77 % 99 % 88 % 94 % 85 % 1014,5 hPa 0,0 l/m 5,5 km/h (1 Bft) O-NO 67 10,5 C 10,7 C 9,2 km/h (2 Bft)
20.10.2019 13:12 11,8 C 10,6 C 16,1 C 11,1 C 12,2 C 12,4 C 77 % 99 % 88 % 94 % 85 % 1014,5 hPa 0,0 l/m 5,6 km/h (1 Bft) N-NO 22 10,4 C 10,6 C 11,8 km/h (2 Bft)
20.10.2019 13:10 11,6 C 10,6 C 15,4 C 11,1 C 12,1 C 12,4 C 77 % 99 % 88 % 94 % 85 % 1014,5 hPa 0,0 l/m 5,5 km/h (1 Bft) O-NO 67 10,4 C 10,6 C 11,8 km/h (2 Bft)
20.10.2019 13:08 11,6 C 10,5 C 15,1 C 11,1 C 12,2 C 12,4 C 77 % 99 % 88 % 94 % 85 % 1014,5 hPa 0,0 l/m 5,5 km/h (1 Bft) N-NO 22 10,3 C 10,5 C 10,9 km/h (2 Bft)
20.10.2019 13:06 11,6 C 10,5 C 15,2 C 11,1 C 12,2 C 12,4 C 77 % 99 % 88 % 94 % 85 % 1014,5 hPa 0,0 l/m 5,1 km/h (1 Bft) O-NO 67 10,3 C 10,5 C 11,8 km/h (2 Bft)
20.10.2019 13:04 11,6 C 10,5 C 15,6 C 11,1 C 12,1 C 12,4 C 77 % 99 % 88 % 94 % 85 % 1014,5 hPa 0,0 l/m 5,1 km/h (1 Bft) O-NO 67 10,3 C 10,5 C 11,8 km/h (2 Bft)
20.10.2019 13:02 11,7 C 10,5 C 15,5 C 11,1 C 12,1 C 12,4 C 77 % 99 % 88 % 94 % 85 % 1014,5 hPa 0,0 l/m 5,1 km/h (1 Bft) NO 45 10,3 C 10,5 C 10,1 km/h (2 Bft)
20.10.2019 13:00 11,7 C 10,4 C 15,4 C 11,1 C 12,2 C 12,4 C 77 % 99 % 88 % 94 % 85 % 1014,5 hPa 0,0 l/m 5,1 km/h (1 Bft) O-NO 67 10,2 C 10,4 C 8,4 km/h (2 Bft)
20.10.2019 12:58 11,6 C 10,5 C 15,5 C 11,1 C 12,2 C 12,4 C 77 % 100 % 88 % 94 % 85 % 1014,5 hPa 0,0 l/m 5,3 km/h (1 Bft) O-SO 112 10,5 C 10,5 C 8,4 km/h (2 Bft)
20.10.2019 12:56 11,6 C 10,5 C 15,2 C 11,1 C 12,2 C 12,4 C 77 % 100 % 88 % 94 % 85 % 1014,5 hPa 0,0 l/m 5,6 km/h (1 Bft) O-NO 67 10,5 C 10,5 C 11,3 km/h (2 Bft)
20.10.2019 12:54 11,6 C 10,5 C 14,9 C 11,1 C 12,3 C 12,4 C 77 % 100 % 88 % 94 % 85 % 1014,5 hPa 0,0 l/m 5,6 km/h (1 Bft) NO 45 10,5 C 10,5 C 11,3 km/h (2 Bft)
20.10.2019 12:52 11,6 C 10,4 C 14,7 C 11,1 C 12,2 C 12,4 C 77 % 100 % 88 % 94 % 85 % 1014,5 hPa 0,0 l/m 5,6 km/h (1 Bft) O-NO 67 10,4 C 10,4 C 10,9 km/h (2 Bft)
20.10.2019 12:50 11,6 C 10,4 C 14,5 C 11,1 C 12,2 C 12,4 C 77 % 100 % 88 % 94 % 85 % 1014,5 hPa 0,0 l/m 5,1 km/h (1 Bft) NO 45 10,4 C 10,4 C 9,7 km/h (2 Bft)
20.10.2019 12:48 11,6 C 10,4 C 13,8 C 11,1 C 12,1 C 12,5 C 77 % 100 % 88 % 94 % 85 % 1014,5 hPa 0,0 l/m 5,0 km/h (1 Bft) O-NO 67 10,4 C 10,4 C 10,6 km/h (2 Bft)
20.10.2019 12:46 11,6 C 10,4 C 14,4 C 11,1 C 12,2 C 12,4 C 77 % 100 % 87 % 94 % 85 % 1014,5 hPa 0,0 l/m 4,8 km/h (1 Bft) O-NO 67 10,4 C 10,4 C 10,6 km/h (2 Bft)
20.10.2019 12:44 11,6 C 10,4 C 14,4 C 11,1 C 12,2 C 12,5 C 77 % 100 % 87 % 94 % 85 % 1014,5 hPa 0,0 l/m 4,5 km/h (1 Bft) NO 45 10,4 C 10,4 C 11,8 km/h (2 Bft)
20.10.2019 12:42 11,6 C 10,4 C 14,4 C 11,1 C 12,2 C 12,5 C 77 % 100 % 87 % 94 % 85 % 1014,5 hPa 0,0 l/m 4,5 km/h (1 Bft) O-NO 67 10,4 C 10,4 C 11,8 km/h (2 Bft)
20.10.2019 12:40 11,6 C 10,4 C 13,7 C 11,1 C 12,3 C 12,5 C 77 % 100 % 87 % 94 % 85 % 1014,5 hPa 0,0 l/m 4,7 km/h (1 Bft) O-NO 67 10,4 C 10,4 C 6,5 km/h (2 Bft)
20.10.2019 12:38 11,6 C 10,2 C 13,4 C 11,1 C 12,1 C 12,5 C 77 % 100 % 87 % 94 % 85 % 1014,9 hPa 0,0 l/m 4,5 km/h (1 Bft) O-NO 67 10,2 C 10,2 C 8,0 km/h (2 Bft)
20.10.2019 12:36 11,6 C 10,2 C 13,2 C 11,1 C 12,1 C 12,5 C 77 % 100 % 87 % 94 % 85 % 1014,9 hPa 0,0 l/m 4,0 km/h (1 Bft) O-SO 112 10,2 C 10,2 C 8,0 km/h (2 Bft)
20.10.2019 12:34 11,6 C 10,2 C 13,5 C 11,1 C 12,2 C 12,5 C 77 % 100 % 87 % 94 % 85 % 1014,9 hPa 0,0 l/m 3,9 km/h (1 Bft) O 90 10,2 C 10,2 C 9,9 km/h (2 Bft)
20.10.2019 12:32 11,4 C 10,2 C 13,5 C 11,1 C 12,2 C 12,5 C 77 % 100 % 87 % 94 % 85 % 1014,9 hPa 0,0 l/m 3,5 km/h (1 Bft) O-NO 67 10,2 C 10,2 C 9,9 km/h (2 Bft)
20.10.2019 12:30 11,4 C 10,2 C 13,2 C 11,1 C 12,2 C 12,5 C 77 % 100 % 87 % 94 % 85 % 1014,9 hPa 0,0 l/m 3,5 km/h (1 Bft) NO 45 10,2 C 10,2 C 9,2 km/h (2 Bft)
20.10.2019 12:28 11,5 C 10,1 C 13,4 C 11,1 C 12,3 C 12,5 C 77 % 100 % 87 % 94 % 85 % 1014,9 hPa 0,0 l/m 3,4 km/h (1 Bft) O-NO 67 10,1 C 10,1 C 3,1 km/h (1 Bft)
20.10.2019 12:26 11,5 C 10,1 C 13,5 C 11,1 C 12,3 C 12,5 C 77 % 99 % 87 % 94 % 85 % 1014,9 hPa 0,0 l/m 3,7 km/h (1 Bft) SO 135 9,9 C 10,1 C 6,3 km/h (2 Bft)
20.10.2019 12:24 11,5 C 10,1 C 13,2 C 11,1 C 12,3 C 12,5 C 77 % 99 % 88 % 94 % 85 % 1014,9 hPa 0,0 l/m 3,9 km/h (1 Bft) O 90 9,9 C 10,1 C 6,3 km/h (2 Bft)
20.10.2019 12:22 11,5 C 10,0 C 13,1 C 11,1 C 12,2 C 12,5 C 77 % 99 % 87 % 94 % 85 % 1014,9 hPa 0,0 l/m 4,2 km/h (1 Bft) O-NO 67 9,8 C 10,0 C 9,7 km/h (2 Bft)
20.10.2019 12:20 11,5 C 10,0 C 13,0 C 11,1 C 12,3 C 12,5 C 77 % 99 % 87 % 94 % 85 % 1014,9 hPa 0,0 l/m 4,0 km/h (1 Bft) O-SO 112 9,8 C 10,0 C 9,7 km/h (2 Bft)
20.10.2019 12:18 11,5 C 10,0 C 12,8 C 11,1 C 12,3 C 12,5 C 77 % 99 % 87 % 94 % 85 % 1014,8 hPa 0,0 l/m 4,0 km/h (1 Bft) O-NO 67 9,8 C 10,0 C 9,7 km/h (2 Bft)
20.10.2019 12:16 11,3 C 9,9 C 12,9 C 11,1 C 12,2 C 12,5 C 77 % 99 % 87 % 94 % 85 % 1014,8 hPa 0,0 l/m 3,9 km/h (1 Bft) O-NO 67 9,8 C 9,9 C 7,2 km/h (2 Bft)
20.10.2019 12:14 11,3 C 9,9 C 12,9 C 11,1 C 12,2 C 12,5 C 77 % 99 % 87 % 94 % 85 % 1014,8 hPa 0,0 l/m 3,9 km/h (1 Bft) O-NO 67 9,8 C 9,9 C 7,7 km/h (2 Bft)
20.10.2019 12:12 11,3 C 9,9 C 12,8 C 11,1 C 12,2 C 12,5 C 77 % 99 % 88 % 94 % 85 % 1014,8 hPa 0,0 l/m 4,0 km/h (1 Bft) O-NO 67 9,8 C 9,9 C 7,7 km/h (2 Bft)
20.10.2019 12:10 11,3 C 9,9 C 12,8 C 11,1 C 12,3 C 12,5 C 77 % 99 % 88 % 94 % 85 % 1014,8 hPa 0,0 l/m 3,9 km/h (1 Bft) O 90 9,8 C 9,9 C 6,0 km/h (2 Bft)
20.10.2019 12:08 11,4 C 9,9 C 12,8 C 11,1 C 12,3 C 12,5 C 77 % 99 % 88 % 94 % 85 % 1014,8 hPa 0,0 l/m 3,9 km/h (1 Bft) O 90 9,8 C 9,9 C 6,0 km/h (2 Bft)
20.10.2019 12:06 11,4 C 9,9 C 12,8 C 11,1 C 12,3 C 12,5 C 77 % 99 % 88 % 94 % 85 % 1014,8 hPa 0,0 l/m 3,9 km/h (1 Bft) O 90 9,8 C 9,9 C 6,0 km/h (2 Bft)
20.10.2019 12:04 11,4 C 9,9 C 12,8 C 11,1 C 12,3 C 12,5 C 77 % 99 % 88 % 94 % 85 % 1014,8 hPa 0,0 l/m 3,9 km/h (1 Bft) O 90 9,8 C 9,9 C 6,0 km/h (2 Bft)
20.10.2019 12:02 11,4 C 9,9 C 12,8 C 11,1 C 12,3 C 12,5 C 77 % 99 % 88 % 94 % 85 % 1014,8 hPa 0,0 l/m 3,9 km/h (1 Bft) O 90 9,8 C 9,9 C 6,0 km/h (2 Bft)
20.10.2019 12:00 11,4 C 9,7 C 12,7 C 11,2 C 12,3 C 12,5 C 77 % 99 % 88 % 94 % 85 % 1014,8 hPa 0,0 l/m 3,7 km/h (1 Bft) O-NO 67 9,6 C 9,7 C 9,2 km/h (2 Bft)
20.10.2019 11:58 11,4 C 9,7 C 12,4 C 11,1 C 12,2 C 12,5 C 77 % 99 % 88 % 95 % 85 % 1014,8 hPa 0,0 l/m 3,4 km/h (1 Bft) O 90 9,6 C 9,7 C 9,2 km/h (2 Bft)
20.10.2019 11:56 11,4 C 9,7 C 12,5 C 11,1 C 12,3 C 12,5 C 77 % 99 % 88 % 94 % 85 % 1014,8 hPa 0,0 l/m 3,2 km/h (1 Bft) O-SO 112 9,6 C 9,7 C 9,4 km/h (2 Bft)
20.10.2019 11:54 11,4 C 9,9 C 12,4 C 11,1 C 12,3 C 12,5 C 77 % 99 % 88 % 94 % 85 % 1014,8 hPa 0,0 l/m 3,2 km/h (1 Bft) O 90 9,8 C 9,9 C 9,4 km/h (2 Bft)
20.10.2019 11:52 11,4 C 9,9 C 12,6 C 11,1 C 12,3 C 12,5 C 77 % 99 % 88 % 94 % 85 % 1014,8 hPa 0,0 l/m 2,9 km/h (1 Bft) O 90 9,8 C 9,9 C 7,7 km/h (2 Bft)
20.10.2019 11:50 11,4 C 9,9 C 12,5 C 11,1 C 12,3 C 12,5 C 77 % 99 % 88 % 95 % 85 % 1014,8 hPa 0,0 l/m 2,9 km/h (1 Bft) O-SO 112 9,8 C 9,9 C 8,4 km/h (2 Bft)
20.10.2019 11:48 11,4 C 9,9 C 12,5 C 11,1 C 12,3 C 12,5 C 77 % 99 % 88 % 95 % 85 % 1014,8 hPa 0,0 l/m 2,7 km/h (1 Bft) O-SO 112 9,8 C 9,9 C 8,4 km/h (2 Bft)
20.10.2019 11:46 11,4 C 9,9 C 12,5 C 11,1 C 12,2 C 12,5 C 77 % 99 % 88 % 95 % 85 % 1014,8 hPa 0,0 l/m 2,4 km/h (1 Bft) SO 135 9,8 C 9,9 C 5,6 km/h (1 Bft)
20.10.2019 11:44 11,4 C 9,9 C 12,6 C 11,2 C 12,2 C 12,6 C 77 % 99 % 88 % 95 % 85 % 1014,8 hPa 0,0 l/m 2,6 km/h (1 Bft) O-SO 112 9,8 C 9,9 C 4,3 km/h (1 Bft)
20.10.2019 11:42 11,4 C 9,7 C 12,6 C 11,2 C 12,2 C 12,6 C 77 % 99 % 88 % 95 % 85 % 1014,8 hPa 0,0 l/m 2,6 km/h (1 Bft) SO 135 9,6 C 9,7 C 3,9 km/h (1 Bft)
20.10.2019 11:40 11,4 C 9,7 C 12,6 C 11,2 C 12,2 C 12,7 C 77 % 99 % 88 % 95 % 85 % 1014,8 hPa 0,0 l/m 2,9 km/h (1 Bft) O-SO 112 9,6 C 9,7 C 3,9 km/h (1 Bft)
20.10.2019 11:38 11,4 C 9,6 C 12,4 C 11,2 C 12,3 C 12,7 C 77 % 99 % 88 % 95 % 84 % 1014,7 hPa 0,0 l/m 3,1 km/h (1 Bft) SO 135 9,5 C 9,6 C 4,3 km/h (1 Bft)
20.10.2019 11:36 11,4 C 9,6 C 11,8 C 11,2 C 12,3 C 12,7 C 77 % 99 % 88 % 95 % 85 % 1014,7 hPa 0,0 l/m 3,7 km/h (1 Bft) O 90 9,5 C 9,6 C 8,9 km/h (2 Bft)
20.10.2019 11:34 11,4 C 9,5 C 11,5 C 11,2 C 12,3 C 12,7 C 77 % 99 % 89 % 95 % 85 % 1014,7 hPa 0,0 l/m 3,5 km/h (1 Bft) O 90 9,4 C 9,5 C 8,9 km/h (2 Bft)
20.10.2019 11:32 11,4 C 9,5 C 11,6 C 11,2 C 12,3 C 12,7 C 77 % 99 % 89 % 95 % 85 % 1014,7 hPa 0,0 l/m 3,4 km/h (1 Bft) O 90 9,4 C 9,5 C 8,7 km/h (2 Bft)
20.10.2019 11:30 11,4 C 9,5 C 11,4 C 11,2 C 12,3 C 12,7 C 77 % 99 % 89 % 95 % 85 % 1014,7 hPa 0,0 l/m 3,4 km/h (1 Bft) O-SO 112 9,4 C 9,5 C 6,8 km/h (2 Bft)
20.10.2019 11:28 11,4 C 9,5 C 11,0 C 11,2 C 12,2 C 12,7 C 77 % 99 % 89 % 95 % 84 % 1014,7 hPa 0,0 l/m 3,5 km/h (1 Bft) O-SO 112 9,4 C 9,5 C 9,2 km/h (2 Bft)
20.10.2019 11:26 11,4 C 9,6 C 11,0 C 11,2 C 12,2 C 12,7 C 77 % 99 % 89 % 95 % 84 % 1014,7 hPa 0,0 l/m 3,5 km/h (1 Bft) O-NO 67 9,5 C 9,6 C 9,2 km/h (2 Bft)
20.10.2019 11:24 11,4 C 9,5 C 11,1 C 11,1 C 12,3 C 12,6 C 77 % 99 % 89 % 95 % 84 % 1014,7 hPa 0,0 l/m 3,5 km/h (1 Bft) O-SO 112 9,4 C 9,5 C 3,6 km/h (1 Bft)
20.10.2019 11:22 11,4 C 9,5 C 10,9 C 11,1 C 12,3 C 12,7 C 77 % 99 % 89 % 95 % 84 % 1014,7 hPa 0,0 l/m 3,4 km/h (1 Bft) SO 135 9,4 C 9,5 C 6,8 km/h (2 Bft)
20.10.2019 11:20 11,4 C 9,5 C 10,9 C 11,1 C 12,3 C 12,6 C 77 % 99 % 89 % 95 % 84 % 1014,7 hPa 0,0 l/m 3,4 km/h (1 Bft) O-SO 112 9,4 C 9,5 C 6,8 km/h (2 Bft)
20.10.2019 11:18 11,4 C 9,5 C 10,8 C 11,1 C 12,3 C 12,6 C 77 % 99 % 89 % 95 % 84 % 1014,6 hPa 0,0 l/m 2,9 km/h (1 Bft) O-NO 67 9,4 C 9,5 C 6,3 km/h (2 Bft)
20.10.2019 11:16 11,2 C 9,6 C 10,9 C 11,1 C 12,3 C 12,6 C 77 % 99 % 89 % 95 % 84 % 1014,6 hPa 0,0 l/m 2,7 km/h (1 Bft) O-NO 67 9,5 C 9,6 C 6,3 km/h (2 Bft)
20.10.2019 11:14 11,4 C 9,6 C 11,0 C 11,1 C 12,3 C 12,6 C 77 % 99 % 89 % 95 % 84 % 1014,6 hPa 0,0 l/m 2,6 km/h (1 Bft) O-NO 67 9,5 C 9,6 C 5,1 km/h (1 Bft)
20.10.2019 11:12 11,2 C 9,6 C 11,2 C 11,1 C 12,3 C 12,7 C 77 % 99 % 89 % 95 % 84 % 1014,6 hPa 0,0 l/m 2,6 km/h (1 Bft) O-SO 112 9,5 C 9,6 C 5,6 km/h (1 Bft)
20.10.2019 11:10 11,2 C 9,6 C 11,4 C 11,1 C 12,3 C 12,7 C 77 % 99 % 89 % 95 % 83 % 1014,6 hPa 0,0 l/m 2,7 km/h (1 Bft) O-NO 67 9,5 C 9,6 C 5,6 km/h (1 Bft)
20.10.2019 11:08 11,2 C 9,6 C 11,6 C 11,1 C 12,3 C 12,7 C 77 % 99 % 89 % 95 % 83 % 1014,6 hPa 0,0 l/m 3,1 km/h (1 Bft) O-NO 67 9,5 C 9,6 C 3,6 km/h (1 Bft)
20.10.2019 11:06 11,2 C 9,7 C 11,7 C 11,1 C 12,3 C 12,7 C 77 % 99 % 89 % 95 % 83 % 1014,6 hPa 0,0 l/m 3,4 km/h (1 Bft) O-NO 67 9,6 C 9,7 C 3,9 km/h (1 Bft)
20.10.2019 11:04 11,2 C 9,7 C 12,0 C 11,1 C 12,3 C 12,7 C 77 % 99 % 89 % 95 % 83 % 1014,6 hPa 0,0 l/m 3,2 km/h (1 Bft) O-NO 67 9,6 C 9,7 C 5,3 km/h (1 Bft)
20.10.2019 11:02 11,3 C 9,7 C 12,1 C 11,1 C 12,3 C 12,7 C 77 % 99 % 89 % 95 % 83 % 1014,6 hPa 0,0 l/m 3,1 km/h (1 Bft) O-SO 112 9,6 C 9,7 C 5,8 km/h (2 Bft)
20.10.2019 11:00 11,2 C 9,6 C 12,2 C 11,1 C 12,3 C 12,7 C 77 % 99 % 89 % 95 % 83 % 1014,6 hPa 0,0 l/m 3,1 km/h (1 Bft) O-NO 67 9,5 C 9,6 C 7,7 km/h (2 Bft)
20.10.2019 10:58 11,3 C 9,7 C 12,3 C 11,2 C 12,3 C 12,7 C 77 % 99 % 89 % 95 % 83 % 1014,6 hPa 0,0 l/m 2,9 km/h (1 Bft) O 90 9,6 C 9,7 C 7,7 km/h (2 Bft)
20.10.2019 10:56 11,1 C 9,7 C 12,3 C 11,1 C 12,3 C 12,7 C 77 % 99 % 89 % 95 % 83 % 1014,6 hPa 0,0 l/m 2,7 km/h (1 Bft) O-NO 67 9,6 C 9,7 C 6,3 km/h (2 Bft)
20.10.2019 10:54 11,1 C 9,7 C 12,2 C 11,1 C 12,3 C 12,7 C 77 % 99 % 89 % 95 % 83 % 1014,6 hPa 0,0 l/m 2,9 km/h (1 Bft) O 90 9,6 C 9,7 C 6,0 km/h (2 Bft)
20.10.2019 10:52 11,1 C 9,7 C 12,2 C 11,2 C 12,3 C 12,7 C 77 % 99 % 89 % 95 % 83 % 1014,6 hPa 0,0 l/m 3,2 km/h (1 Bft) O-NO 67 9,6 C 9,7 C 6,5 km/h (2 Bft)
20.10.2019 10:50 11,1 C 9,7 C 12,2 C 11,1 C 12,3 C 12,7 C 77 % 99 % 89 % 95 % 83 % 1014,6 hPa 0,0 l/m 3,4 km/h (1 Bft) O-NO 67 9,6 C 9,7 C 7,2 km/h (2 Bft)
20.10.2019 10:48 11,2 C 9,7 C 12,3 C 11,1 C 12,3 C 12,7 C 77 % 99 % 89 % 95 % 83 % 1014,6 hPa 0,0 l/m 3,5 km/h (1 Bft) NO 45 9,6 C 9,7 C 7,2 km/h (2 Bft)
20.10.2019 10:46 11,2 C 9,7 C 12,2 C 11,1 C 12,3 C 12,7 C 77 % 99 % 89 % 95 % 83 % 1014,6 hPa 0,0 l/m 3,5 km/h (1 Bft) O-NO 67 9,6 C 9,7 C 5,3 km/h (1 Bft)
20.10.2019 10:44 11,2 C 9,6 C 12,2 C 11,1 C 12,2 C 12,7 C 77 % 99 % 89 % 95 % 82 % 1014,6 hPa 0,0 l/m 3,5 km/h (1 Bft) O-NO 67 9,5 C 9,6 C 5,3 km/h (1 Bft)
20.10.2019 10:42 11,2 C 9,6 C 12,0 C 11,1 C 12,2 C 12,7 C 77 % 99 % 89 % 95 % 82 % 1014,6 hPa 0,0 l/m 3,7 km/h (1 Bft) O-NO 67 9,5 C 9,6 C 10,4 km/h (2 Bft)
20.10.2019 10:40 11,2 C 9,6 C 12,0 C 11,1 C 12,3 C 12,7 C 77 % 99 % 89 % 95 % 82 % 1014,6 hPa 0,0 l/m 3,9 km/h (1 Bft) N-NO 22 9,5 C 9,6 C 10,4 km/h (2 Bft)
20.10.2019 10:38 11,2 C 9,6 C 12,2 C 11,2 C 12,3 C 12,7 C 77 % 99 % 89 % 95 % 82 % 1014,5 hPa 0,0 l/m 3,9 km/h (1 Bft) O-NO 67 9,5 C 9,6 C 9,2 km/h (2 Bft)
20.10.2019 10:36 11,2 C 9,5 C 12,2 C 11,1 C 12,2 C 12,7 C 77 % 99 % 89 % 95 % 82 % 1014,5 hPa 0,0 l/m 4,0 km/h (1 Bft) O-NO 67 9,4 C 9,5 C 9,2 km/h (2 Bft)
20.10.2019 10:34 11,2 C 9,5 C 12,1 C 11,1 C 12,3 C 12,7 C 77 % 99 % 89 % 95 % 82 % 1014,5 hPa 0,0 l/m 4,0 km/h (1 Bft) NO 45 9,4 C 9,5 C 7,2 km/h (2 Bft)
20.10.2019 10:32 11,2 C 9,5 C 12,1 C 11,1 C 12,3 C 12,7 C 77 % 99 % 89 % 95 % 82 % 1014,5 hPa 0,0 l/m 4,0 km/h (1 Bft) NO 45 9,4 C 9,5 C 7,2 km/h (2 Bft)
20.10.2019 10:30 11,2 C 9,5 C 12,1 C 11,2 C 12,3 C 12,7 C 77 % 99 % 89 % 95 % 82 % 1014,5 hPa 0,0 l/m 3,9 km/h (1 Bft) NO 45 9,4 C 9,5 C 7,2 km/h (2 Bft)
20.10.2019 10:28 11,2 C 9,5 C 12,0 C 11,1 C 12,3 C 12,7 C 77 % 99 % 89 % 95 % 82 % 1014,5 hPa 0,0 l/m 3,5 km/h (1 Bft) N-NO 22 9,4 C 9,5 C 6,8 km/h (2 Bft)
20.10.2019 10:26 11,2 C 9,5 C 11,9 C 11,2 C 12,3 C 12,7 C 77 % 99 % 89 % 95 % 82 % 1014,5 hPa 0,0 l/m 3,9 km/h (1 Bft) O-NO 67 9,4 C 9,5 C 8,7 km/h (2 Bft)
20.10.2019 10:24 11,1 C 9,4 C 11,6 C 11,1 C 12,3 C 12,7 C 77 % 99 % 89 % 95 % 82 % 1014,5 hPa 0,0 l/m 4,5 km/h (1 Bft) NO 45 9,3 C 9,4 C 8,7 km/h (2 Bft)
20.10.2019 10:22 11,2 C 9,4 C 11,7 C 11,2 C 12,3 C 12,7 C 77 % 99 % 89 % 95 % 82 % 1014,5 hPa 0,0 l/m 4,7 km/h (1 Bft) O-NO 67 9,3 C 9,4 C 7,0 km/h (2 Bft)
20.10.2019 10:20 11,1 C 9,4 C 11,5 C 11,1 C 12,3 C 12,7 C 77 % 99 % 89 % 95 % 82 % 1014,5 hPa 0,0 l/m 4,8 km/h (1 Bft) O-NO 67 9,3 C 9,4 C 6,0 km/h (2 Bft)
20.10.2019 10:18 11,1 C 9,3 C 11,4 C 11,1 C 12,3 C 12,7 C 77 % 99 % 89 % 95 % 82 % 1014,5 hPa 0,0 l/m 5,0 km/h (1 Bft) O-NO 67 9,2 C 9,3 C 7,5 km/h (2 Bft)
20.10.2019 10:16 11,1 C 9,3 C 11,2 C 11,1 C 12,3 C 12,7 C 77 % 99 % 89 % 95 % 82 % 1014,5 hPa 0,0 l/m 5,1 km/h (1 Bft) O-NO 67 9,2 C 9,3 C 10,1 km/h (2 Bft)
20.10.2019 10:14 11,1 C 9,3 C 11,2 C 11,2 C 12,3 C 12,7 C 77 % 99 % 89 % 95 % 82 % 1014,5 hPa 0,0 l/m 4,7 km/h (1 Bft) O-NO 67 9,2 C 9,3 C 10,1 km/h (2 Bft)
20.10.2019 10:12 11,1 C 9,3 C 11,2 C 11,1 C 12,3 C 12,7 C 77 % 99 % 89 % 95 % 82 % 1014,5 hPa 0,0 l/m 4,2 km/h (1 Bft) O-NO 67 9,2 C 9,3 C 9,4 km/h (2 Bft)
20.10.2019 10:10 11,1 C 9,2 C 11,2 C 11,1 C 12,3 C 12,7 C 77 % 99 % 89 % 95 % 82 % 1014,5 hPa 0,0 l/m 3,9 km/h (1 Bft) NO 45 9,1 C 9,2 C 9,2 km/h (2 Bft)
20.10.2019 10:08 11,1 C 9,2 C 11,1 C 11,1 C 12,3 C 12,7 C 77 % 99 % 89 % 95 % 82 % 1014,5 hPa 0,0 l/m 3,7 km/h (1 Bft) O-NO 67 9,1 C 9,2 C 9,2 km/h (2 Bft)
20.10.2019 10:06 11,1 C 9,3 C 11,2 C 11,1 C 12,3 C 12,7 C 77 % 99 % 89 % 95 % 82 % 1014,5 hPa 0,0 l/m 3,5 km/h (1 Bft) O-NO 67 9,2 C 9,3 C 7,5 km/h (2 Bft)
20.10.2019 10:04 11,1 C 9,3 C 11,1 C 11,2 C 12,3 C 12,7 C 77 % 99 % 89 % 95 % 82 % 1014,5 hPa 0,0 l/m 3,4 km/h (1 Bft) O-NO 67 9,2 C 9,3 C 7,5 km/h (2 Bft)
20.10.2019 10:02 11,1 C 9,2 C 11,0 C 11,1 C 12,3 C 12,7 C 77 % 99 % 89 % 95 % 82 % 1014,5 hPa 0,0 l/m 3,5 km/h (1 Bft) NO 45 9,1 C 9,2 C 6,5 km/h (2 Bft)
20.10.2019 10:00 11,1 C 9,2 C 10,8 C 11,1 C 12,3 C 12,7 C 77 % 99 % 89 % 95 % 82 % 1014,5 hPa 0,0 l/m 3,4 km/h (1 Bft) NO 45 9,1 C 9,2 C 5,8 km/h (2 Bft)
20.10.2019 09:58 11,1 C 9,2 C 10,9 C 11,1 C 12,3 C 12,7 C 77 % 99 % 89 % 95 % 82 % 1014,4 hPa 0,0 l/m 3,5 km/h (1 Bft) O-NO 67 9,1 C 9,2 C 4,8 km/h (1 Bft)
20.10.2019 09:56 11,1 C 9,2 C 10,9 C 11,1 C 12,3 C 12,7 C 77 % 99 % 89 % 95 % 82 % 1014,4 hPa 0,0 l/m 3,5 km/h (1 Bft) NO 45 9,1 C 9,2 C 7,0 km/h (2 Bft)
20.10.2019 09:54 11,1 C 9,2 C 10,8 C 11,1 C 12,3 C 12,7 C 77 % 99 % 89 % 95 % 82 % 1014,4 hPa 0,0 l/m 3,9 km/h (1 Bft) O-NO 67 9,1 C 9,2 C 7,0 km/h (2 Bft)
20.10.2019 09:52 11,1 C 9,2 C 10,6 C 11,1 C 12,3 C 12,7 C 77 % 99 % 89 % 95 % 82 % 1014,4 hPa 0,0 l/m 3,7 km/h (1 Bft) O-NO 67 9,1 C 9,2 C 6,3 km/h (2 Bft)
20.10.2019 09:50 11,1 C 9,2 C 10,6 C 11,1 C 12,3 C 12,7 C 77 % 99 % 89 % 95 % 82 % 1014,4 hPa 0,0 l/m 3,5 km/h (1 Bft) S 180 9,1 C 9,2 C 7,2 km/h (2 Bft)
20.10.2019 09:48 11,1 C 9,2 C 10,6 C 11,1 C 12,3 C 12,7 C 77 % 99 % 89 % 95 % 82 % 1014,4 hPa 0,0 l/m 3,9 km/h (1 Bft) O-NO 67 9,1 C 9,2 C 7,2 km/h (2 Bft)
20.10.2019 09:46 11,1 C 9,2 C 10,6 C 11,1 C 12,3 C 12,7 C 77 % 99 % 89 % 95 % 82 % 1014,4 hPa 0,0 l/m 3,7 km/h (1 Bft) O-NO 67 9,1 C 9,2 C 7,7 km/h (2 Bft)
20.10.2019 09:44 11,1 C 9,2 C 10,6 C 11,1 C 12,2 C 12,7 C 77 % 99 % 89 % 95 % 82 % 1014,4 hPa 0,0 l/m 3,9 km/h (1 Bft) NO 45 9,1 C 9,2 C 7,7 km/h (2 Bft)
20.10.2019 09:42 11,1 C 9,2 C 10,6 C 11,1 C 12,3 C 12,7 C 77 % 99 % 89 % 95 % 82 % 1014,4 hPa 0,0 l/m 3,7 km/h (1 Bft) O-NO 67 9,1 C 9,2 C 6,8 km/h (2 Bft)
20.10.2019 09:40 11,1 C 9,2 C 10,6 C 11,1 C 12,3 C 12,7 C 77 % 99 % 89 % 95 % 82 % 1014,4 hPa 0,0 l/m 3,5 km/h (1 Bft) NO 45 9,1 C 9,2 C 7,0 km/h (2 Bft)
20.10.2019 09:38 11,1 C 9,2 C 10,5 C 11,1 C 12,2 C 12,7 C 77 % 99 % 89 % 95 % 82 % 1014,5 hPa 0,0 l/m 3,5 km/h (1 Bft) O-NO 67 9,1 C 9,2 C 7,0 km/h (2 Bft)
20.10.2019 09:36 11,1 C 9,2 C 10,4 C 11,1 C 12,3 C 12,7 C 77 % 99 % 89 % 95 % 82 % 1014,5 hPa 0,0 l/m 3,5 km/h (1 Bft) O-NO 67 9,1 C 9,2 C 6,8 km/h (2 Bft)
20.10.2019 09:34 11,1 C 9,2 C 10,4 C 11,1 C 12,2 C 12,7 C 77 % 99 % 89 % 95 % 82 % 1014,5 hPa 0,0 l/m 3,7 km/h (1 Bft) O-NO 67 9,1 C 9,2 C 6,8 km/h (2 Bft)
20.10.2019 09:32 11,1 C 9,2 C 10,4 C 11,1 C 12,2 C 12,7 C 77 % 99 % 89 % 95 % 82 % 1014,5 hPa 0,0 l/m 3,7 km/h (1 Bft) O-NO 67 9,1 C 9,2 C 6,5 km/h (2 Bft)
20.10.2019 09:30 11,1 C 9,2 C 10,4 C 11,1 C 12,3 C 12,7 C 77 % 99 % 89 % 95 % 82 % 1014,5 hPa 0,0 l/m 3,5 km/h (1 Bft) O-SO 112 9,1 C 9,2 C 5,8 km/h (2 Bft)
20.10.2019 09:28 11,1 C 9,2 C 10,4 C 11,1 C 12,3 C 12,7 C 77 % 99 % 89 % 95 % 82 % 1014,5 hPa 0,0 l/m 3,1 km/h (1 Bft) O-SO 112 9,1 C 9,2 C 8,7 km/h (2 Bft)
20.10.2019 09:26 11,1 C 9,2 C 10,4 C 11,1 C 12,3 C 12,7 C 77 % 99 % 89 % 95 % 82 % 1014,5 hPa 0,0 l/m 2,9 km/h (1 Bft) O-NO 67 9,1 C 9,2 C 8,7 km/h (2 Bft)
20.10.2019 09:24 11,1 C 9,2 C 10,4 C 11,1 C 12,3 C 12,7 C 77 % 99 % 89 % 95 % 82 % 1014,5 hPa 0,0 l/m 2,7 km/h (1 Bft) O-NO 67 9,1 C 9,2 C 6,5 km/h (2 Bft)
20.10.2019 09:22 11,1 C 9,2 C 10,4 C 11,1 C 12,3 C 12,7 C 77 % 99 % 89 % 95 % 82 % 1014,5 hPa 0,0 l/m 2,4 km/h (1 Bft) O 90 9,1 C 9,2 C 6,5 km/h (2 Bft)
20.10.2019 09:20 11,1 C 9,2 C 10,4 C 11,1 C 12,3 C 12,7 C 77 % 99 % 89 % 95 % 82 % 1014,5 hPa 0,0 l/m 2,4 km/h (1 Bft) O 90 9,1 C 9,2 C 4,1 km/h (1 Bft)
20.10.2019 09:18 11,1 C 9,1 C 10,1 C 11,1 C 12,3 C 12,7 C 77 % 99 % 89 % 95 % 82 % 1014,4 hPa 0,0 l/m 2,7 km/h (1 Bft) O-NO 67 9,0 C 9,1 C 5,6 km/h (1 Bft)
20.10.2019 09:16 11,1 C 9,1 C 10,1 C 11,1 C 12,3 C 12,7 C 77 % 99 % 89 % 95 % 82 % 1014,4 hPa 0,0 l/m 2,6 km/h (1 Bft) O 90 9,0 C 9,1 C 6,0 km/h (2 Bft)
20.10.2019 09:14 11,1 C 9,1 C 10,1 C 11,1 C 12,2 C 12,7 C 77 % 99 % 89 % 95 % 82 % 1014,4 hPa 0,0 l/m 2,7 km/h (1 Bft) O 90 9,0 C 9,1 C 6,0 km/h (2 Bft)
20.10.2019 09:12 11,1 C 9,1 C 10,1 C 11,1 C 12,2 C 12,7 C 77 % 99 % 89 % 95 % 82 % 1014,4 hPa 0,0 l/m 2,7 km/h (1 Bft) O 90 9,0 C 9,1 C 6,3 km/h (2 Bft)
20.10.2019 09:10 11,1 C 9,2 C 10,2 C 11,1 C 12,2 C 12,7 C 77 % 99 % 89 % 95 % 82 % 1014,4 hPa 0,0 l/m 2,9 km/h (1 Bft) O-NO 67 9,1 C 9,2 C 6,3 km/h (2 Bft)
20.10.2019 09:08 11,1 C 9,2 C 10,2 C 11,1 C 12,2 C 12,7 C 77 % 99 % 89 % 95 % 82 % 1014,4 hPa 0,0 l/m 2,9 km/h (1 Bft) O 90 9,1 C 9,2 C 3,9 km/h (1 Bft)
20.10.2019 09:06 11,1 C 9,2 C 10,3 C 11,1 C 12,3 C 12,7 C 77 % 99 % 89 % 95 % 82 % 1014,4 hPa 0,0 l/m 3,1 km/h (1 Bft) O-NO 67 9,1 C 9,2 C 7,2 km/h (2 Bft)
20.10.2019 09:04 11,1 C 9,1 C 10,2 C 11,1 C 12,2 C 12,7 C 77 % 99 % 89 % 95 % 82 % 1014,4 hPa 0,0 l/m 3,5 km/h (1 Bft) O-NO 67 9,0 C 9,1 C 7,2 km/h (2 Bft)
20.10.2019 09:02 11,1 C 9,1 C 10,2 C 11,1 C 12,2 C 12,7 C 77 % 99 % 89 % 95 % 82 % 1014,4 hPa 0,0 l/m 3,7 km/h (1 Bft) NO 45 9,0 C 9,1 C 8,0 km/h (2 Bft)
20.10.2019 09:00 11,1 C 9,2 C 10,2 C 11,1 C 12,2 C 12,7 C 77 % 99 % 89 % 95 % 82 % 1014,4 hPa 0,0 l/m 4,0 km/h (1 Bft) O-NO 67 9,1 C 9,2 C 8,0 km/h (2 Bft)
20.10.2019 08:58 11,1 C 9,1 C 10,2 C 11,1 C 12,2 C 12,7 C 77 % 99 % 89 % 95 % 82 % 1014,1 hPa 0,0 l/m 3,9 km/h (1 Bft) O-NO 67 9,0 C 9,1 C 8,4 km/h (2 Bft)
20.10.2019 08:56 11,1 C 9,1 C 10,2 C 11,1 C 12,2 C 12,7 C 77 % 99 % 89 % 95 % 82 % 1014,1 hPa 0,0 l/m 4,2 km/h (1 Bft) O-NO 67 9,0 C 9,1 C 8,4 km/h (2 Bft)
20.10.2019 08:54 11,1 C 9,1 C 10,1 C 11,1 C 12,2 C 12,8 C 77 % 99 % 89 % 95 % 82 % 1014,1 hPa 0,0 l/m 4,2 km/h (1 Bft) O-NO 67 9,0 C 9,1 C 7,5 km/h (2 Bft)
20.10.2019 08:52 11,1 C 9,1 C 10,1 C 11,1 C 12,3 C 12,7 C 77 % 99 % 89 % 95 % 82 % 1014,1 hPa 0,0 l/m 4,2 km/h (1 Bft) O 90 9,0 C 9,1 C 7,5 km/h (2 Bft)
20.10.2019 08:50 11,1 C 9,1 C 10,1 C 11,1 C 12,3 C 12,7 C 77 % 99 % 89 % 95 % 82 % 1014,1 hPa 0,0 l/m 4,3 km/h (1 Bft) N-NO 22 9,0 C 9,1 C 7,5 km/h (2 Bft)
20.10.2019 08:48 11,1 C 9,1 C 10,0 C 11,1 C 12,3 C 12,7 C 77 % 99 % 89 % 95 % 82 % 1014,1 hPa 0,0 l/m 4,7 km/h (1 Bft) O-NO 67 9,0 C 9,1 C 7,5 km/h (2 Bft)
20.10.2019 08:46 11,1 C 9,1 C 10,1 C 11,1 C 12,2 C 12,7 C 77 % 99 % 89 % 95 % 82 % 1014,1 hPa 0,0 l/m 4,8 km/h (1 Bft) O-NO 67 9,0 C 9,1 C 8,0 km/h (2 Bft)
20.10.2019 08:44 11,1 C 9,1 C 10,2 C 11,1 C 12,2 C 12,7 C 77 % 99 % 89 % 95 % 82 % 1014,1 hPa 0,0 l/m 4,7 km/h (1 Bft) O-NO 67 9,0 C 9,1 C 8,7 km/h (2 Bft)
20.10.2019 08:42 11,1 C 9,1 C 10,1 C 11,1 C 12,3 C 12,7 C 77 % 99 % 89 % 95 % 82 % 1014,1 hPa 0,0 l/m 4,5 km/h (1 Bft) NO 45 9,0 C 9,1 C 9,2 km/h (2 Bft)
20.10.2019 08:40 11,1 C 9,1 C 10,1 C 11,1 C 12,2 C 12,7 C 77 % 99 % 89 % 95 % 82 % 1014,1 hPa 0,0 l/m 4,2 km/h (1 Bft) O-NO 67 9,0 C 9,1 C 9,2 km/h (2 Bft)
20.10.2019 08:38 11,2 C 9,1 C 10,1 C 11,1 C 12,2 C 12,7 C 77 % 99 % 89 % 95 % 82 % 1014,2 hPa 0,0 l/m 4,0 km/h (1 Bft) NO 45 9,0 C 9,1 C 9,2 km/h (2 Bft)
20.10.2019 08:36 11,1 C 9,1 C 10,0 C 11,1 C 12,2 C 12,7 C 77 % 99 % 89 % 95 % 82 % 1014,2 hPa 0,0 l/m 4,3 km/h (1 Bft) O-NO 67 9,0 C 9,1 C 8,0 km/h (2 Bft)
20.10.2019 08:34 11,2 C 9,1 C 10,0 C 11,1 C 12,2 C 12,7 C 77 % 99 % 89 % 95 % 82 % 1014,2 hPa 0,0 l/m 4,5 km/h (1 Bft) O-NO 67 9,0 C 9,1 C 8,4 km/h (2 Bft)
20.10.2019 08:32 11,2 C 9,1 C 9,9 C 11,1 C 12,2 C 12,7 C 77 % 99 % 89 % 95 % 82 % 1014,2 hPa 0,0 l/m 4,5 km/h (1 Bft) O-NO 67 9,0 C 9,1 C 8,4 km/h (2 Bft)
20.10.2019 08:30 11,1 C 9,1 C 10,0 C 11,1 C 12,2 C 12,7 C 77 % 99 % 89 % 95 % 82 % 1014,2 hPa 0,0 l/m 4,8 km/h (1 Bft) O-NO 67 9,0 C 9,1 C 7,0 km/h (2 Bft)
20.10.2019 08:28 11,2 C 9,1 C 10,0 C 11,1 C 12,2 C 12,7 C 77 % 99 % 89 % 95 % 82 % 1014,2 hPa 0,0 l/m 4,5 km/h (1 Bft) O-NO 67 9,0 C 9,1 C 8,7 km/h (2 Bft)
20.10.2019 08:26 11,2 C 9,1 C 10,0 C 11,1 C 12,2 C 12,7 C 77 % 99 % 89 % 95 % 82 % 1014,2 hPa 0,0 l/m 4,2 km/h (1 Bft) NO 45 9,0 C 9,1 C 8,7 km/h (2 Bft)
20.10.2019 08:24 11,2 C 9,2 C 10,0 C 11,1 C 12,2 C 12,7 C 77 % 99 % 89 % 95 % 82 % 1014,2 hPa 0,0 l/m 3,5 km/h (1 Bft) O-NO 67 9,1 C 9,2 C 7,7 km/h (2 Bft)
20.10.2019 08:22 11,2 C 9,2 C 10,0 C 11,1 C 12,3 C 12,7 C 77 % 99 % 89 % 95 % 82 % 1014,2 hPa 0,0 l/m 3,4 km/h (1 Bft) O-NO 67 9,1 C 9,2 C 6,8 km/h (2 Bft)
20.10.2019 08:20 11,2 C 9,2 C 10,0 C 11,1 C 12,2 C 12,8 C 77 % 99 % 89 % 95 % 82 % 1014,2 hPa 0,0 l/m 2,9 km/h (1 Bft) O-NO 67 9,1 C 9,2 C 6,3 km/h (2 Bft)
20.10.2019 08:18 11,2 C 9,2 C 9,9 C 11,1 C 12,2 C 12,7 C 77 % 99 % 89 % 95 % 82 % 1014,1 hPa 0,0 l/m 2,9 km/h (1 Bft) O-NO 67 9,1 C 9,2 C 6,3 km/h (2 Bft)
20.10.2019 08:16 11,2 C 9,2 C 9,9 C 11,1 C 12,2 C 12,8 C 77 % 99 % 89 % 95 % 82 % 1014,1 hPa 0,0 l/m 2,9 km/h (1 Bft) O-NO 67 9,1 C 9,2 C 4,1 km/h (1 Bft)
20.10.2019 08:14 11,2 C 9,1 C 9,9 C 11,1 C 12,2 C 12,7 C 77 % 99 % 89 % 95 % 82 % 1014,1 hPa 0,0 l/m 2,9 km/h (1 Bft) O-NO 67 9,0 C 9,1 C 6,8 km/h (2 Bft)
20.10.2019 08:12 11,2 C 9,2 C 9,9 C 11,1 C 12,3 C 12,7 C 77 % 99 % 89 % 95 % 82 % 1014,1 hPa 0,0 l/m 3,1 km/h (1 Bft) O-NO 67 9,1 C 9,2 C 6,8 km/h (2 Bft)
20.10.2019 08:10 11,2 C 9,2 C 9,9 C 11,1 C 12,3 C 12,7 C 77 % 99 % 89 % 95 % 82 % 1014,1 hPa 0,0 l/m 3,1 km/h (1 Bft) O 90 9,1 C 9,2 C 5,3 km/h (1 Bft)
20.10.2019 08:08 11,2 C 9,2 C 9,9 C 11,1 C 12,3 C 12,8 C 77 % 99 % 89 % 95 % 82 % 1014,1 hPa 0,0 l/m 3,2 km/h (1 Bft) O-NO 67 9,1 C 9,2 C 5,3 km/h (1 Bft)
20.10.2019 08:06 11,2 C 9,2 C 9,9 C 11,1 C 12,3 C 12,8 C 77 % 99 % 89 % 95 % 82 % 1014,1 hPa 0,0 l/m 3,1 km/h (1 Bft) S-SO 157 9,1 C 9,2 C 5,3 km/h (1 Bft)
20.10.2019 08:04 11,2 C 9,2 C 9,9 C 11,1 C 12,3 C 12,8 C 77 % 99 % 89 % 95 % 82 % 1014,1 hPa 0,0 l/m 3,7 km/h (1 Bft) O-NO 67 9,1 C 9,2 C 5,3 km/h (1 Bft)
20.10.2019 08:02 11,2 C 9,2 C 9,9 C 11,1 C 12,3 C 12,8 C 77 % 99 % 89 % 95 % 82 % 1014,1 hPa 0,0 l/m 3,7 km/h (1 Bft) O-NO 67 9,1 C 9,2 C 5,6 km/h (1 Bft)
20.10.2019 08:00 11,2 C 9,2 C 9,9 C 11,1 C 12,3 C 12,7 C 77 % 99 % 89 % 95 % 82 % 1014,1 hPa 0,0 l/m 3,9 km/h (1 Bft) O-NO 67 9,1 C 9,2 C 6,0 km/h (2 Bft)
20.10.2019 07:58 11,2 C 9,2 C 9,9 C 11,1 C 12,3 C 12,7 C 77 % 99 % 89 % 95 % 82 % 1013,9 hPa 0,0 l/m 3,9 km/h (1 Bft) O-NO 67 9,1 C 9,2 C 6,0 km/h (2 Bft)
20.10.2019 07:56 11,2 C 9,2 C 9,9 C 11,1 C 12,3 C 12,8 C 77 % 99 % 89 % 95 % 82 % 1013,9 hPa 0,0 l/m 4,0 km/h (1 Bft) O-NO 67 9,1 C 9,2 C 7,0 km/h (2 Bft)
20.10.2019 07:54 11,2 C 9,2 C 9,9 C 11,1 C 12,3 C 12,7 C 77 % 99 % 89 % 95 % 82 % 1013,9 hPa 0,0 l/m 4,0 km/h (1 Bft) O-NO 67 9,1 C 9,2 C 7,2 km/h (2 Bft)
20.10.2019 07:52 11,2 C 9,2 C 9,9 C 11,1 C 12,3 C 12,7 C 77 % 99 % 89 % 95 % 82 % 1013,9 hPa 0,0 l/m 3,9 km/h (1 Bft) O-NO 67 9,1 C 9,2 C 8,4 km/h (2 Bft)
20.10.2019 07:50 11,2 C 9,2 C 9,8 C 11,1 C 12,2 C 12,7 C 77 % 99 % 89 % 95 % 82 % 1013,9 hPa 0,0 l/m 3,9 km/h (1 Bft) NO 45 9,1 C 9,2 C 8,4 km/h (2 Bft)
20.10.2019 07:48 11,2 C 9,2 C 9,9 C 11,1 C 12,2 C 12,8 C 77 % 99 % 89 % 95 % 82 % 1013,9 hPa 0,0 l/m 3,9 km/h (1 Bft) O-NO 67 9,1 C 9,2 C 7,0 km/h (2 Bft)
20.10.2019 07:46 11,2 C 9,2 C 9,9 C 11,1 C 12,3 C 12,8 C 77 % 99 % 89 % 95 % 82 % 1013,9 hPa 0,0 l/m 3,9 km/h (1 Bft) O-NO 67 9,1 C 9,2 C 7,0 km/h (2 Bft)
20.10.2019 07:44 11,2 C 9,2 C 9,9 C 11,1 C 12,2 C 12,8 C 77 % 99 % 89 % 95 % 82 % 1013,9 hPa 0,0 l/m 4,0 km/h (1 Bft) NO 45 9,1 C 9,2 C 5,8 km/h (2 Bft)
20.10.2019 07:42 11,1 C 9,2 C 9,9 C 11,1 C 12,3 C 12,8 C 77 % 99 % 89 % 95 % 82 % 1013,9 hPa 0,0 l/m 4,0 km/h (1 Bft) NO 45 9,1 C 9,2 C 5,8 km/h (2 Bft)
20.10.2019 07:40 11,2 C 9,3 C 9,8 C 11,1 C 12,3 C 12,8 C 77 % 99 % 89 % 95 % 82 % 1013,9 hPa 0,0 l/m 3,9 km/h (1 Bft) O-NO 67 9,2 C 9,3 C 6,3 km/h (2 Bft)
20.10.2019 07:38 11,2 C 9,3 C 9,8 C 11,1 C 12,3 C 12,8 C 77 % 99 % 89 % 95 % 82 % 1013,9 hPa 0,0 l/m 3,9 km/h (1 Bft) O-NO 67 9,2 C 9,3 C 7,2 km/h (2 Bft)
20.10.2019 07:36 11,2 C 9,3 C 9,9 C 11,1 C 12,3 C 12,8 C 77 % 99 % 89 % 95 % 82 % 1013,9 hPa 0,0 l/m 3,5 km/h (1 Bft) O-NO 67 9,2 C 9,3 C 7,7 km/h (2 Bft)
20.10.2019 07:34 11,1 C 9,3 C 9,8 C 11,1 C 12,3 C 12,8 C 77 % 99 % 89 % 95 % 82 % 1013,9 hPa 0,0 l/m 3,2 km/h (1 Bft) O-NO 67 9,2 C 9,3 C 7,7 km/h (2 Bft)
20.10.2019 07:32 11,1 C 9,3 C 9,8 C 11,1 C 12,2 C 12,8 C 77 % 99 % 89 % 95 % 82 % 1013,9 hPa 0,0 l/m 2,9 km/h (1 Bft) O-NO 67 9,2 C 9,3 C 5,1 km/h (1 Bft)
20.10.2019 07:30 11,1 C 9,3 C 9,9 C 11,1 C 12,3 C 12,8 C 77 % 99 % 89 % 95 % 82 % 1013,9 hPa 0,0 l/m 2,9 km/h (1 Bft) O-NO 67 9,2 C 9,3 C 5,1 km/h (1 Bft)
20.10.2019 07:28 11,1 C 9,3 C 10,0 C 11,1 C 12,2 C 12,8 C 77 % 99 % 89 % 95 % 82 % 1013,9 hPa 0,0 l/m 3,1 km/h (1 Bft) O-NO 67 9,2 C 9,3 C 5,1 km/h (1 Bft)
20.10.2019 07:26 11,1 C 9,3 C 10,0 C 11,1 C 12,3 C 12,8 C 77 % 99 % 89 % 95 % 82 % 1013,9 hPa 0,0 l/m 3,1 km/h (1 Bft) O-NO 67 9,2 C 9,3 C 5,1 km/h (1 Bft)
20.10.2019 07:24 11,1 C 9,3 C 9,9 C 11,1 C 12,3 C 12,8 C 77 % 99 % 89 % 95 % 82 % 1013,9 hPa 0,0 l/m 2,9 km/h (1 Bft) NO 45 9,2 C 9,3 C 5,1 km/h (1 Bft)
20.10.2019 07:22 11,1 C 9,3 C 9,9 C 11,1 C 12,3 C 12,8 C 77 % 99 % 89 % 95 % 82 % 1013,9 hPa 0,0 l/m 3,1 km/h (1 Bft) O-NO 67 9,2 C 9,3 C 6,8 km/h (2 Bft)
20.10.2019 07:20 11,1 C 9,3 C 9,9 C 11,1 C 12,3 C 12,8 C 77 % 99 % 89 % 95 % 82 % 1013,9 hPa 0,0 l/m 3,1 km/h (1 Bft) NO 45 9,2 C 9,3 C 6,8 km/h (2 Bft)
20.10.2019 07:18 11,1 C 9,3 C 9,9 C 11,1 C 12,3 C 12,8 C 77 % 99 % 89 % 95 % 82 % 1013,8 hPa 0,0 l/m 2,6 km/h (1 Bft) O-NO 67 9,2 C 9,3 C 6,8 km/h (2 Bft)
20.10.2019 07:16 11,1 C 9,3 C 9,9 C 11,1 C 12,3 C 12,8 C 77 % 99 % 89 % 95 % 82 % 1013,8 hPa 0,0 l/m 2,7 km/h (1 Bft) O-NO 67 9,2 C 9,3 C 6,8 km/h (2 Bft)
20.10.2019 07:14 11,1 C 9,4 C 9,9 C 11,1 C 12,3 C 12,8 C 77 % 99 % 89 % 95 % 82 % 1013,8 hPa 0,0 l/m 3,1 km/h (1 Bft) O-SO 112 9,3 C 9,4 C 4,6 km/h (1 Bft)
20.10.2019 07:12 11,1 C 9,4 C 9,9 C 11,1 C 12,2 C 12,8 C 77 % 99 % 89 % 95 % 82 % 1013,8 hPa 0,0 l/m 3,4 km/h (1 Bft) O-NO 67 9,3 C 9,4 C 4,6 km/h (1 Bft)
20.10.2019 07:10 11,1 C 9,4 C 10,0 C 11,1 C 12,3 C 12,8 C 77 % 99 % 89 % 95 % 82 % 1013,8 hPa 0,0 l/m 3,4 km/h (1 Bft) NO 45 9,3 C 9,4 C 4,6 km/h (1 Bft)
20.10.2019 07:08 11,1 C 9,4 C 10,0 C 11,1 C 12,3 C 12,8 C 77 % 99 % 89 % 95 % 82 % 1013,8 hPa 0,0 l/m 3,7 km/h (1 Bft) O-NO 67 9,3 C 9,4 C 7,2 km/h (2 Bft)
20.10.2019 07:06 11,1 C 9,4 C 10,0 C 11,1 C 12,3 C 12,8 C 77 % 99 % 89 % 95 % 82 % 1013,8 hPa 0,0 l/m 3,7 km/h (1 Bft) NO 45 9,3 C 9,4 C 7,2 km/h (2 Bft)
20.10.2019 07:04 11,1 C 9,4 C 10,0 C 11,1 C 12,3 C 12,8 C 77 % 99 % 89 % 95 % 82 % 1013,8 hPa 0,0 l/m 3,7 km/h (1 Bft) O-NO 67 9,3 C 9,4 C 7,2 km/h (2 Bft)
20.10.2019 07:02 11,1 C 9,4 C 10,0 C 11,1 C 12,2 C 12,8 C 77 % 99 % 89 % 95 % 82 % 1013,8 hPa 0,0 l/m 3,5 km/h (1 Bft) NO 45 9,3 C 9,4 C 7,2 km/h (2 Bft)
20.10.2019 07:00 11,1 C 9,4 C 10,0 C 11,1 C 12,3 C 12,8 C 77 % 99 % 89 % 95 % 82 % 1013,8 hPa 0,0 l/m 3,7 km/h (1 Bft) O-NO 67 9,3 C 9,4 C 5,8 km/h (2 Bft)
20.10.2019 06:58 11,1 C 9,4 C 10,0 C 11,1 C 12,2 C 12,8 C 77 % 99 % 89 % 95 % 82 % 1013,8 hPa 0,0 l/m 3,9 km/h (1 Bft) O-NO 67 9,3 C 9,4 C 5,8 km/h (2 Bft)
20.10.2019 06:56 11,3 C 9,4 C 10,0 C 11,1 C 12,3 C 12,8 C 77 % 99 % 89 % 95 % 82 % 1013,8 hPa 0,0 l/m 4,0 km/h (1 Bft) O-NO 67 9,3 C 9,4 C 7,7 km/h (2 Bft)
20.10.2019 06:54 11,2 C 9,4 C 10,0 C 11,1 C 12,3 C 12,8 C 77 % 99 % 89 % 95 % 82 % 1013,8 hPa 0,0 l/m 3,9 km/h (1 Bft) O-NO 67 9,3 C 9,4 C 7,7 km/h (2 Bft)
20.10.2019 06:52 11,3 C 9,4 C 10,0 C 11,1 C 12,3 C 12,8 C 77 % 99 % 89 % 95 % 82 % 1013,8 hPa 0,0 l/m 3,7 km/h (1 Bft) O-NO 67 9,3 C 9,4 C 7,2 km/h (2 Bft)
20.10.2019 06:50 11,2 C 9,4 C 9,9 C 11,1 C 12,3 C 12,8 C 77 % 99 % 89 % 95 % 82 % 1013,8 hPa 0,0 l/m 3,5 km/h (1 Bft) O-NO 67 9,3 C 9,4 C 6,8 km/h (2 Bft)
20.10.2019 06:48 11,3 C 9,4 C 10,0 C 11,1 C 12,3 C 12,8 C 77 % 99 % 89 % 95 % 82 % 1013,8 hPa 0,0 l/m 3,4 km/h (1 Bft) NO 45 9,3 C 9,4 C 6,8 km/h (2 Bft)
20.10.2019 06:46 11,3 C 9,4 C 10,0 C 11,1 C 12,3 C 12,8 C 77 % 99 % 89 % 95 % 82 % 1013,8 hPa 0,0 l/m 3,4 km/h (1 Bft) O-NO 67 9,3 C 9,4 C 5,1 km/h (1 Bft)
20.10.2019 06:44 11,3 C 9,4 C 10,0 C 11,1 C 12,2 C 12,8 C 77 % 99 % 89 % 95 % 82 % 1013,8 hPa 0,0 l/m 3,5 km/h (1 Bft) NO 45 9,3 C 9,4 C 5,1 km/h (1 Bft)
20.10.2019 06:42 11,3 C 9,4 C 10,0 C 11,1 C 12,3 C 12,8 C 77 % 99 % 89 % 95 % 82 % 1013,8 hPa 0,0 l/m 3,7 km/h (1 Bft) NO 45 9,3 C 9,4 C 5,8 km/h (2 Bft)
20.10.2019 06:40 11,2 C 9,4 C 10,0 C 11,1 C 12,3 C 12,8 C 77 % 99 % 89 % 95 % 82 % 1013,8 hPa 0,0 l/m 3,7 km/h (1 Bft) O-NO 67 9,3 C 9,4 C 6,8 km/h (2 Bft)
20.10.2019 06:38 11,2 C 9,4 C 10,0 C 11,1 C 12,3 C 12,8 C 77 % 99 % 89 % 95 % 82 % 1013,8 hPa 0,0 l/m 3,5 km/h (1 Bft) O-NO 67 9,3 C 9,4 C 6,8 km/h (2 Bft)
20.10.2019 06:36 11,2 C 9,4 C 10,0 C 11,1 C 12,3 C 12,8 C 77 % 99 % 89 % 95 % 82 % 1013,8 hPa 0,0 l/m 3,4 km/h (1 Bft) O-NO 67 9,3 C 9,4 C 7,7 km/h (2 Bft)
20.10.2019 06:34 11,2 C 9,4 C 10,0 C 11,1 C 12,3 C 12,8 C 77 % 99 % 89 % 95 % 82 % 1013,8 hPa 0,0 l/m 3,1 km/h (1 Bft) O-NO 67 9,3 C 9,4 C 7,7 km/h (2 Bft)
20.10.2019 06:32 11,2 C 9,4 C 10,0 C 11,1 C 12,3 C 12,8 C 77 % 99 % 89 % 95 % 82 % 1013,8 hPa 0,0 l/m 2,9 km/h (1 Bft) O-NO 67 9,3 C 9,4 C 4,8 km/h (1 Bft)
20.10.2019 06:30 11,2 C 9,4 C 10,1 C 11,1 C 12,3 C 12,8 C 77 % 99 % 89 % 95 % 82 % 1013,8 hPa 0,0 l/m 2,7 km/h (1 Bft) O-NO 67 9,3 C 9,4 C 5,3 km/h (1 Bft)
20.10.2019 06:28 11,2 C 9,4 C 10,0 C 11,1 C 12,3 C 12,8 C 77 % 99 % 89 % 95 % 82 % 1013,8 hPa 0,0 l/m 2,7 km/h (1 Bft) O-NO 67 9,3 C 9,4 C 5,3 km/h (1 Bft)
20.10.2019 06:26 11,2 C 9,4 C 10,1 C 11,1 C 12,3 C 12,8 C 77 % 99 % 89 % 95 % 82 % 1013,8 hPa 0,0 l/m 2,7 km/h (1 Bft) O-NO 67 9,3 C 9,4 C 4,8 km/h (1 Bft)
20.10.2019 06:24 11,2 C 9,4 C 10,1 C 11,1 C 12,3 C 12,8 C 77 % 99 % 89 % 95 % 82 % 1013,8 hPa 0,0 l/m 2,7 km/h (1 Bft) O-NO 67 9,3 C 9,4 C 6,3 km/h (2 Bft)
20.10.2019 06:22 11,2 C 9,4 C 10,1 C 11,1 C 12,3 C 12,8 C 77 % 99 % 89 % 95 % 82 % 1013,8 hPa 0,0 l/m 2,9 km/h (1 Bft) NO 45 9,3 C 9,4 C 6,3 km/h (2 Bft)
20.10.2019 06:20 11,2 C 9,4 C 10,1 C 11,1 C 12,3 C 12,8 C 77 % 99 % 89 % 95 % 82 % 1013,8 hPa 0,0 l/m 2,9 km/h (1 Bft) O-NO 67 9,3 C 9,4 C 5,1 km/h (1 Bft)
20.10.2019 06:18 11,2 C 9,4 C 10,1 C 11,1 C 12,3 C 12,8 C 77 % 99 % 89 % 95 % 82 % 1013,6 hPa 0,0 l/m 3,1 km/h (1 Bft) O-NO 67 9,3 C 9,4 C 4,6 km/h (1 Bft)
20.10.2019 06:16 11,2 C 9,4 C 10,1 C 11,1 C 12,2 C 12,8 C 77 % 99 % 89 % 95 % 82 % 1013,6 hPa 0,0 l/m 3,1 km/h (1 Bft) NO 45 9,3 C 9,4 C 6,0 km/h (2 Bft)
20.10.2019 06:14 11,2 C 9,4 C 10,1 C 11,1 C 12,3 C 12,8 C 77 % 99 % 89 % 95 % 82 % 1013,6 hPa 0,0 l/m 3,4 km/h (1 Bft) O-NO 67 9,3 C 9,4 C 6,3 km/h (2 Bft)
20.10.2019 06:12 11,2 C 9,4 C 10,1 C 11,1 C 12,3 C 12,8 C 77 % 99 % 89 % 95 % 82 % 1013,6 hPa 0,0 l/m 4,2 km/h (1 Bft) O-NO 67 9,3 C 9,4 C 6,3 km/h (2 Bft)
20.10.2019 06:10 11,2 C 9,5 C 10,1 C 11,1 C 12,3 C 12,8 C 77 % 99 % 89 % 95 % 82 % 1013,6 hPa 0,0 l/m 4,2 km/h (1 Bft) O-NO 67 9,4 C 9,5 C 6,3 km/h (2 Bft)
20.10.2019 06:08 11,2 C 9,5 C 10,1 C 11,1 C 12,3 C 12,8 C 77 % 99 % 89 % 95 % 82 % 1013,6 hPa 0,0 l/m 4,2 km/h (1 Bft) O-NO 67 9,4 C 9,5 C 6,3 km/h (2 Bft)
20.10.2019 06:06 11,2 C 9,5 C 10,1 C 11,1 C 12,3 C 12,8 C 77 % 99 % 89 % 95 % 82 % 1013,6 hPa 0,0 l/m 4,2 km/h (1 Bft) O-NO 67 9,4 C 9,5 C 6,3 km/h (2 Bft)
20.10.2019 06:04 11,2 C 9,5 C 10,1 C 11,1 C 12,3 C 12,8 C 77 % 99 % 89 % 95 % 82 % 1013,6 hPa 0,0 l/m 4,2 km/h (1 Bft) O-NO 67 9,4 C 9,5 C 6,3 km/h (2 Bft)
20.10.2019 06:02 11,2 C 9,5 C 10,1 C 11,1 C 12,3 C 12,8 C 77 % 99 % 89 % 95 % 82 % 1013,6 hPa 0,0 l/m 4,2 km/h (1 Bft) O-NO 67 9,4 C 9,5 C 6,3 km/h (2 Bft)
20.10.2019 06:00 11,2 C 9,5 C 10,1 C 11,1 C 12,3 C 12,8 C 77 % 99 % 89 % 95 % 82 % 1013,6 hPa 0,0 l/m 4,2 km/h (1 Bft) O-NO 67 9,4 C 9,5 C 6,8 km/h (2 Bft)
20.10.2019 05:58 11,2 C 9,5 C 10,2 C 11,1 C 12,3 C 12,8 C 77 % 99 % 89 % 95 % 82 % 1013,4 hPa 0,0 l/m 4,2 km/h (1 Bft) NO 45 9,4 C 9,5 C 8,0 km/h (2 Bft)
20.10.2019 05:56 11,2 C 9,5 C 10,1 C 11,1 C 12,3 C 12,8 C 77 % 99 % 89 % 95 % 82 % 1013,4 hPa 0,0 l/m 3,5 km/h (1 Bft) O-NO 67 9,4 C 9,5 C 8,9 km/h (2 Bft)
20.10.2019 05:54 11,2 C 9,5 C 10,2 C 11,1 C 12,3 C 12,8 C 77 % 99 % 89 % 95 % 82 % 1013,4 hPa 0,0 l/m 3,1 km/h (1 Bft) N-NO 22 9,4 C 9,5 C 8,9 km/h (2 Bft)
20.10.2019 05:52 11,2 C 9,6 C 10,2 C 11,1 C 12,3 C 12,8 C 77 % 99 % 89 % 95 % 82 % 1013,4 hPa 0,0 l/m 2,7 km/h (1 Bft) NO 45 9,5 C 9,6 C 6,3 km/h (2 Bft)
20.10.2019 05:50 11,2 C 9,6 C 10,2 C 11,1 C 12,3 C 12,8 C 77 % 99 % 89 % 95 % 82 % 1013,4 hPa 0,0 l/m 2,6 km/h (1 Bft) O-NO 67 9,5 C 9,6 C 6,3 km/h (2 Bft)
20.10.2019 05:48 11,2 C 9,6 C 10,1 C 11,1 C 12,3 C 12,8 C 77 % 99 % 89 % 95 % 82 % 1013,4 hPa 0,0 l/m 2,6 km/h (1 Bft) O-NO 67 9,5 C 9,6 C 4,6 km/h (1 Bft)
20.10.2019 05:46 11,2 C 9,6 C 10,2 C 11,1 C 12,3 C 12,9 C 77 % 99 % 89 % 95 % 82 % 1013,4 hPa 0,0 l/m 2,9 km/h (1 Bft) O-NO 67 9,5 C 9,6 C 3,6 km/h (1 Bft)
20.10.2019 05:44 11,2 C 9,6 C 10,1 C 11,1 C 12,3 C 12,8 C 77 % 99 % 89 % 95 % 82 % 1013,4 hPa 0,0 l/m 3,2 km/h (1 Bft) O-NO 67 9,5 C 9,6 C 4,1 km/h (1 Bft)
20.10.2019 05:42 11,4 C 9,6 C 10,2 C 11,1 C 12,3 C 12,9 C 77 % 99 % 89 % 95 % 82 % 1013,4 hPa 0,0 l/m 3,5 km/h (1 Bft) O 90 9,5 C 9,6 C 5,3 km/h (1 Bft)
20.10.2019 05:40 11,4 C 9,6 C 10,2 C 11,1 C 12,3 C 12,8 C 77 % 99 % 89 % 95 % 82 % 1013,4 hPa 0,0 l/m 3,9 km/h (1 Bft) O-NO 67 9,5 C 9,6 C 6,3 km/h (2 Bft)
20.10.2019 05:38 11,2 C 9,6 C 10,2 C 11,1 C 12,3 C 12,8 C 77 % 99 % 89 % 95 % 82 % 1013,2 hPa 0,0 l/m 4,0 km/h (1 Bft) NO 45 9,5 C 9,6 C 7,2 km/h (2 Bft)
20.10.2019 05:36 11,2 C 9,6 C 10,2 C 11,1 C 12,3 C 12,8 C 77 % 99 % 89 % 95 % 82 % 1013,2 hPa 0,0 l/m 4,0 km/h (1 Bft) NO 45 9,5 C 9,6 C 7,2 km/h (2 Bft)
20.10.2019 05:34 11,4 C 9,6 C 10,2 C 11,1 C 12,3 C 12,8 C 77 % 99 % 89 % 95 % 82 % 1013,2 hPa 0,0 l/m 4,0 km/h (1 Bft) O-NO 67 9,5 C 9,6 C 7,0 km/h (2 Bft)
20.10.2019 05:32 11,4 C 9,6 C 10,2 C 11,1 C 12,3 C 12,8 C 77 % 99 % 89 % 95 % 82 % 1013,2 hPa 0,0 l/m 4,0 km/h (1 Bft) O-NO 67 9,5 C 9,6 C 7,0 km/h (2 Bft)
20.10.2019 05:30 11,4 C 9,6 C 10,2 C 11,1 C 12,3 C 12,8 C 77 % 99 % 89 % 95 % 82 % 1013,2 hPa 0,0 l/m 4,0 km/h (1 Bft) NO 45 9,5 C 9,6 C 6,3 km/h (2 Bft)
20.10.2019 05:28 11,2 C 9,6 C 10,2 C 11,1 C 12,3 C 12,8 C 77 % 99 % 89 % 95 % 82 % 1013,2 hPa 0,0 l/m 4,0 km/h (1 Bft) NO 45 9,5 C 9,6 C 7,7 km/h (2 Bft)
20.10.2019 05:26 11,4 C 9,6 C 10,2 C 11,1 C 12,3 C 12,8 C 77 % 99 % 89 % 95 % 82 % 1013,2 hPa 0,0 l/m 4,0 km/h (1 Bft) NO 45 9,5 C 9,6 C 7,7 km/h (2 Bft)
20.10.2019 05:24 11,4 C 9,6 C 10,3 C 11,1 C 12,3 C 12,9 C 77 % 99 % 89 % 95 % 82 % 1013,2 hPa 0,0 l/m 3,9 km/h (1 Bft) NO 45 9,5 C 9,6 C 6,8 km/h (2 Bft)
20.10.2019 05:22 11,2 C 9,6 C 10,2 C 11,1 C 12,3 C 12,9 C 77 % 99 % 89 % 95 % 82 % 1013,2 hPa 0,0 l/m 3,9 km/h (1 Bft) NO 45 9,5 C 9,6 C 6,8 km/h (2 Bft)
20.10.2019 05:20 11,4 C 9,6 C 10,2 C 11,1 C 12,3 C 12,9 C 77 % 99 % 89 % 95 % 82 % 1013,2 hPa 0,0 l/m 4,0 km/h (1 Bft) NO 45 9,5 C 9,6 C 8,0 km/h (2 Bft)
20.10.2019 05:18 11,4 C 9,6 C 10,2 C 11,1 C 12,3 C 12,8 C 77 % 99 % 89 % 95 % 82 % 1013,3 hPa 0,0 l/m 4,2 km/h (1 Bft) O-NO 67 9,5 C 9,6 C 8,0 km/h (2 Bft)
20.10.2019 05:16 11,2 C 9,6 C 10,2 C 11,1 C 12,3 C 12,9 C 77 % 99 % 89 % 95 % 82 % 1013,3 hPa 0,0 l/m 4,2 km/h (1 Bft) NO 45 9,5 C 9,6 C 7,5 km/h (2 Bft)
20.10.2019 05:14 11,2 C 9,6 C 10,2 C 11,1 C 12,3 C 12,9 C 77 % 99 % 89 % 95 % 82 % 1013,3 hPa 0,0 l/m 4,3 km/h (1 Bft) O-NO 67 9,5 C 9,6 C 8,9 km/h (2 Bft)
20.10.2019 05:12 11,4 C 9,6 C 10,2 C 11,1 C 12,3 C 12,8 C 77 % 99 % 89 % 95 % 82 % 1013,3 hPa 0,0 l/m 4,2 km/h (1 Bft) O-NO 67 9,5 C 9,6 C 8,9 km/h (2 Bft)
20.10.2019 05:10 11,4 C 9,6 C 10,2 C 11,1 C 12,3 C 12,8 C 77 % 99 % 89 % 95 % 82 % 1013,3 hPa 0,0 l/m 4,0 km/h (1 Bft) O-NO 67 9,5 C 9,6 C 9,2 km/h (2 Bft)
20.10.2019 05:08 11,4 C 9,6 C 10,2 C 11,1 C 12,3 C 12,9 C 77 % 99 % 89 % 95 % 82 % 1013,3 hPa 0,0 l/m 4,0 km/h (1 Bft) NO 45 9,5 C 9,6 C 9,2 km/h (2 Bft)
20.10.2019 05:06 11,4 C 9,6 C 10,3 C 11,1 C 12,3 C 12,9 C 77 % 99 % 89 % 95 % 82 % 1013,3 hPa 0,0 l/m 3,7 km/h (1 Bft) NO 45 9,5 C 9,6 C 6,8 km/h (2 Bft)
20.10.2019 05:04 11,4 C 9,6 C 10,2 C 11,1 C 12,3 C 12,8 C 77 % 99 % 89 % 95 % 82 % 1013,3 hPa 0,0 l/m 3,7 km/h (1 Bft) NO 45 9,5 C 9,6 C 6,8 km/h (2 Bft)
20.10.2019 05:02 11,4 C 9,6 C 10,2 C 11,1 C 12,3 C 12,9 C 77 % 99 % 89 % 95 % 82 % 1013,3 hPa 0,0 l/m 3,7 km/h (1 Bft) NO 45 9,5 C 9,6 C 6,3 km/h (2 Bft)
20.10.2019 05:00 11,4 C 9,6 C 10,2 C 11,1 C 12,3 C 12,8 C 77 % 99 % 89 % 95 % 82 % 1013,3 hPa 0,0 l/m 4,0 km/h (1 Bft) O-NO 67 9,5 C 9,6 C 8,2 km/h (2 Bft)
20.10.2019 04:58 11,4 C 9,7 C 10,2 C 11,1 C 12,3 C 12,9 C 77 % 99 % 89 % 95 % 82 % 1013,4 hPa 0,0 l/m 4,2 km/h (1 Bft) O-NO 67 9,6 C 9,7 C 8,2 km/h (2 Bft)
20.10.2019 04:56 11,4 C 9,7 C 10,2 C 11,1 C 12,3 C 12,9 C 77 % 99 % 89 % 95 % 82 % 1013,4 hPa 0,0 l/m 4,0 km/h (1 Bft) O-NO 67 9,6 C 9,7 C 6,3 km/h (2 Bft)
20.10.2019 04:54 11,4 C 9,7 C 10,3 C 11,1 C 12,3 C 12,8 C 77 % 99 % 89 % 95 % 82 % 1013,4 hPa 0,0 l/m 4,0 km/h (1 Bft) O-NO 67 9,6 C 9,7 C 7,2 km/h (2 Bft)
20.10.2019 04:52 11,4 C 9,7 C 10,3 C 11,1 C 12,3 C 12,8 C 77 % 99 % 89 % 95 % 82 % 1013,4 hPa 0,0 l/m 3,9 km/h (1 Bft) NO 45 9,6 C 9,7 C 8,4 km/h (2 Bft)
20.10.2019 04:50 11,4 C 9,7 C 10,3 C 11,1 C 12,3 C 12,8 C 77 % 99 % 89 % 95 % 82 % 1013,4 hPa 0,0 l/m 3,7 km/h (1 Bft) O-NO 67 9,6 C 9,7 C 10,1 km/h (2 Bft)
20.10.2019 04:48 11,4 C 9,7 C 10,3 C 11,1 C 12,3 C 12,9 C 77 % 99 % 89 % 95 % 82 % 1013,4 hPa 0,0 l/m 3,5 km/h (1 Bft) NO 45 9,6 C 9,7 C 10,1 km/h (2 Bft)
20.10.2019 04:46 11,4 C 9,7 C 10,3 C 11,1 C 12,2 C 12,9 C 77 % 99 % 89 % 95 % 82 % 1013,4 hPa 0,0 l/m 3,1 km/h (1 Bft) NO 45 9,6 C 9,7 C 6,0 km/h (2 Bft)
20.10.2019 04:44 11,4 C 9,7 C 10,3 C 11,1 C 12,3 C 12,8 C 77 % 99 % 89 % 95 % 82 % 1013,4 hPa 0,0 l/m 2,9 km/h (1 Bft) NO 45 9,6 C 9,7 C 3,9 km/h (1 Bft)
20.10.2019 04:42 11,4 C 9,7 C 10,2 C 11,1 C 12,3 C 12,9 C 77 % 99 % 89 % 95 % 82 % 1013,4 hPa 0,0 l/m 3,1 km/h (1 Bft) O-NO 67 9,6 C 9,7 C 4,6 km/h (1 Bft)
20.10.2019 04:40 11,4 C 9,7 C 10,2 C 11,1 C 12,3 C 12,9 C 77 % 99 % 89 % 95 % 82 % 1013,4 hPa 0,0 l/m 3,1 km/h (1 Bft) O-NO 67 9,6 C 9,7 C 4,6 km/h (1 Bft)
20.10.2019 04:38 11,4 C 9,9 C 10,2 C 11,1 C 12,3 C 12,9 C 77 % 99 % 89 % 95 % 82 % 1013,4 hPa 0,0 l/m 3,4 km/h (1 Bft) O-NO 67 9,8 C 9,9 C 4,3 km/h (1 Bft)
20.10.2019 04:35 11,4 C 9,9 C 10,3 C 11,1 C 12,3 C 12,9 C 77 % 99 % 89 % 95 % 82 % 1013,4 hPa 0,0 l/m 3,9 km/h (1 Bft) O-NO 67 9,8 C 9,9 C 5,8 km/h (2 Bft)
20.10.2019 04:29 11,4 C 9,9 C 10,2 C 11,1 C 12,3 C 12,9 C 77 % 99 % 89 % 95 % 82 % 1013,4 hPa 0,0 l/m 4,2 km/h (1 Bft) O-NO 67 9,8 C 9,9 C 5,6 km/h (1 Bft)
20.10.2019 04:24 11,4 C 9,9 C 10,3 C 11,1 C 12,3 C 12,9 C 77 % 99 % 89 % 95 % 82 % 1013,4 hPa 0,0 l/m 4,2 km/h (1 Bft) O 90 9,8 C 9,9 C 5,3 km/h (1 Bft)
20.10.2019 04:19 11,4 C 10,0 C 10,3 C 11,1 C 12,3 C 12,9 C 77 % 99 % 89 % 95 % 82 % 1013,4 hPa 0,0 l/m 4,5 km/h (1 Bft) NO 45 9,8 C 10,0 C 9,4 km/h (2 Bft)
20.10.2019 04:14 11,4 C 10,0 C 10,3 C 11,1 C 12,3 C 12,9 C 77 % 99 % 89 % 95 % 82 % 1013,2 hPa 0,0 l/m 3,7 km/h (1 Bft) O-NO 67 9,8 C 10,0 C 6,5 km/h (2 Bft)
20.10.2019 04:09 11,4 C 10,0 C 10,3 C 11,1 C 12,3 C 12,9 C 77 % 99 % 89 % 95 % 82 % 1013,2 hPa 0,0 l/m 4,0 km/h (1 Bft) O-NO 67 9,8 C 10,0 C 9,7 km/h (2 Bft)
20.10.2019 04:04 11,4 C 10,0 C 10,3 C 11,1 C 12,3 C 12,9 C 77 % 99 % 89 % 95 % 82 % 1013,2 hPa 0,0 l/m 4,8 km/h (1 Bft) NO 45 9,8 C 10,0 C 5,8 km/h (2 Bft)
20.10.2019 03:59 11,4 C 10,0 C 10,3 C 11,1 C 12,3 C 12,9 C 77 % 99 % 89 % 95 % 82 % 1013,2 hPa 0,0 l/m 5,3 km/h (1 Bft) O-NO 67 9,8 C 10,0 C 9,9 km/h (2 Bft)
20.10.2019 03:54 11,4 C 10,0 C 10,3 C 11,1 C 12,3 C 12,9 C 77 % 99 % 89 % 95 % 82 % 1013,4 hPa 0,0 l/m 5,1 km/h (1 Bft) O-NO 67 9,8 C 10,0 C 7,7 km/h (2 Bft)
20.10.2019 03:49 11,4 C 9,9 C 10,3 C 11,1 C 12,3 C 12,9 C 77 % 99 % 89 % 95 % 82 % 1013,4 hPa 0,0 l/m 4,7 km/h (1 Bft) O-NO 67 9,8 C 9,9 C 7,7 km/h (2 Bft)
20.10.2019 03:44 11,4 C 9,9 C 10,3 C 11,1 C 12,3 C 12,9 C 77 % 99 % 89 % 95 % 82 % 1013,4 hPa 0,0 l/m 4,7 km/h (1 Bft) O-NO 67 9,8 C 9,9 C 7,5 km/h (2 Bft)
20.10.2019 03:39 11,4 C 9,9 C 10,3 C 11,1 C 12,3 C 12,8 C 77 % 99 % 89 % 95 % 82 % 1013,4 hPa 0,0 l/m 4,5 km/h (1 Bft) O-NO 67 9,8 C 9,9 C 10,6 km/h (2 Bft)
20.10.2019 03:34 11,4 C 10,0 C 10,3 C 11,1 C 12,3 C 12,8 C 77 % 99 % 89 % 95 % 82 % 1013,5 hPa 0,0 l/m 5,0 km/h (1 Bft) O-NO 67 9,8 C 10,0 C 10,4 km/h (2 Bft)
20.10.2019 03:29 11,4 C 10,0 C 10,3 C 11,1 C 12,3 C 12,9 C 77 % 99 % 89 % 95 % 82 % 1013,5 hPa 0,0 l/m 4,8 km/h (1 Bft) O-NO 67 9,8 C 10,0 C 9,9 km/h (2 Bft)
20.10.2019 03:24 11,4 C 10,0 C 10,3 C 11,1 C 12,3 C 12,8 C 77 % 99 % 88 % 95 % 82 % 1013,5 hPa 0,0 l/m 4,7 km/h (1 Bft) O 90 9,8 C 10,0 C 8,4 km/h (2 Bft)
20.10.2019 03:19 11,4 C 10,0 C 10,3 C 11,1 C 12,3 C 12,8 C 77 % 99 % 89 % 95 % 82 % 1013,5 hPa 0,0 l/m 4,2 km/h (1 Bft) SO 135 9,8 C 10,0 C 6,0 km/h (2 Bft)
20.10.2019 03:14 11,4 C 10,0 C 10,4 C 11,1 C 12,3 C 12,9 C 77 % 99 % 89 % 95 % 82 % 1013,3 hPa 0,0 l/m 3,7 km/h (1 Bft) O 90 9,8 C 10,0 C 9,2 km/h (2 Bft)
20.10.2019 03:09 11,4 C 10,0 C 10,3 C 11,1 C 12,3 C 12,9 C 77 % 99 % 89 % 95 % 82 % 1013,3 hPa 0,0 l/m 5,3 km/h (1 Bft) O-NO 67 9,8 C 10,0 C 9,7 km/h (2 Bft)
20.10.2019 03:04 11,4 C 10,0 C 10,3 C 11,1 C 12,3 C 12,9 C 77 % 99 % 89 % 95 % 82 % 1013,3 hPa 0,0 l/m 5,3 km/h (1 Bft) O-NO 67 9,8 C 10,0 C 9,7 km/h (2 Bft)
20.10.2019 02:59 11,4 C 10,0 C 10,3 C 11,1 C 12,3 C 12,8 C 77 % 99 % 89 % 95 % 82 % 1013,3 hPa 0,0 l/m 5,1 km/h (1 Bft) NO 45 9,8 C 10,0 C 10,9 km/h (2 Bft)
20.10.2019 02:54 11,4 C 10,0 C 10,3 C 11,1 C 12,3 C 12,8 C 77 % 99 % 88 % 95 % 82 % 1013,5 hPa 0,0 l/m 3,5 km/h (1 Bft) O-NO 67 9,8 C 10,0 C 10,6 km/h (2 Bft)
20.10.2019 02:49 11,4 C 10,0 C 10,4 C 11,1 C 12,3 C 12,8 C 77 % 99 % 88 % 95 % 82 % 1013,5 hPa 0,0 l/m 2,3 km/h (1 Bft) O-NO 67 9,8 C 10,0 C 6,0 km/h (2 Bft)
20.10.2019 02:44 11,4 C 10,0 C 10,4 C 11,1 C 12,3 C 12,8 C 77 % 99 % 89 % 95 % 82 % 1013,5 hPa 0,0 l/m 2,3 km/h (1 Bft) O-SO 112 9,8 C 10,0 C 3,9 km/h (1 Bft)
20.10.2019 02:39 11,3 C 10,0 C 10,4 C 11,1 C 12,3 C 12,8 C 76 % 99 % 88 % 95 % 82 % 1013,5 hPa 0,0 l/m 2,7 km/h (1 Bft) SO 135 9,8 C 10,0 C 3,4 km/h (1 Bft)
20.10.2019 02:34 11,3 C 10,0 C 10,4 C 11,1 C 12,3 C 12,8 C 76 % 99 % 89 % 95 % 82 % 1013,6 hPa 0,0 l/m 2,4 km/h (1 Bft) O 90 9,8 C 10,0 C 4,1 km/h (1 Bft)
20.10.2019 02:29 11,3 C 10,0 C 10,5 C 11,1 C 12,3 C 12,8 C 76 % 99 % 88 % 95 % 82 % 1013,6 hPa 0,0 l/m 2,4 km/h (1 Bft) SO 135 9,8 C 10,0 C 4,6 km/h (1 Bft)
20.10.2019 02:24 11,3 C 10,0 C 10,5 C 11,1 C 12,3 C 12,8 C 76 % 99 % 89 % 95 % 82 % 1013,6 hPa 0,0 l/m 2,3 km/h (1 Bft) SO 135 9,8 C 10,0 C 6,8 km/h (2 Bft)
20.10.2019 02:19 11,4 C 10,0 C 10,4 C 11,1 C 12,3 C 12,8 C 76 % 99 % 88 % 95 % 82 % 1013,6 hPa 0,0 l/m 3,2 km/h (1 Bft) O 90 9,8 C 10,0 C 4,6 km/h (1 Bft)
20.10.2019 02:14 11,3 C 10,0 C 10,3 C 11,1 C 12,3 C 12,8 C 76 % 99 % 88 % 95 % 82 % 1013,6 hPa 0,0 l/m 3,5 km/h (1 Bft) SO 135 9,8 C 10,0 C 4,6 km/h (1 Bft)
20.10.2019 02:09 11,3 C 10,0 C 10,3 C 11,1 C 12,3 C 12,8 C 76 % 99 % 88 % 95 % 82 % 1013,6 hPa 0,0 l/m 3,9 km/h (1 Bft) O-NO 67 9,8 C 10,0 C 6,5 km/h (2 Bft)
20.10.2019 02:04 11,3 C 10,0 C 10,4 C 11,1 C 12,3 C 12,8 C 76 % 99 % 88 % 95 % 82 % 1013,6 hPa 0,0 l/m 5,0 km/h (1 Bft) O-SO 112 9,8 C 10,0 C 4,6 km/h (1 Bft)
20.10.2019 01:59 11,3 C 10,0 C 10,3 C 11,1 C 12,3 C 12,8 C 76 % 99 % 88 % 95 % 82 % 1013,6 hPa 0,0 l/m 4,2 km/h (1 Bft) O-NO 67 9,8 C 10,0 C 7,7 km/h (2 Bft)
20.10.2019 01:54 11,5 C 9,9 C 10,3 C 11,1 C 12,3 C 12,8 C 76 % 99 % 89 % 95 % 82 % 1013,7 hPa 0,0 l/m 2,9 km/h (1 Bft) O 90 9,8 C 9,9 C 8,4 km/h (2 Bft)
20.10.2019 01:49 11,5 C 9,9 C 10,3 C 11,1 C 12,3 C 12,8 C 76 % 99 % 88 % 95 % 82 % 1013,7 hPa 0,0 l/m 4,0 km/h (1 Bft) O-NO 67 9,8 C 9,9 C 2,9 km/h (1 Bft)
20.10.2019 01:44 11,5 C 10,0 C 10,3 C 11,1 C 12,3 C 12,8 C 76 % 99 % 89 % 95 % 82 % 1013,7 hPa 0,0 l/m 5,1 km/h (1 Bft) O 90 9,8 C 10,0 C 4,8 km/h (1 Bft)
20.10.2019 01:39 11,5 C 10,0 C 10,3 C 11,1 C 12,3 C 12,8 C 76 % 99 % 88 % 95 % 82 % 1013,7 hPa 0,0 l/m 5,5 km/h (1 Bft) O-NO 67 9,8 C 10,0 C 9,4 km/h (2 Bft)
20.10.2019 01:34 11,5 C 10,1 C 10,3 C 11,1 C 12,3 C 12,8 C 76 % 99 % 89 % 95 % 82 % 1013,9 hPa 0,0 l/m 5,3 km/h (1 Bft) O-NO 67 9,9 C 10,1 C 8,2 km/h (2 Bft)
20.10.2019 01:29 11,5 C 10,1 C 10,4 C 11,1 C 12,3 C 12,8 C 76 % 99 % 88 % 95 % 82 % 1013,9 hPa 0,0 l/m 4,3 km/h (1 Bft) N-NO 22 9,9 C 10,1 C 8,0 km/h (2 Bft)
20.10.2019 01:24 11,5 C 10,1 C 10,5 C 11,1 C 12,3 C 12,8 C 76 % 99 % 88 % 95 % 82 % 1013,9 hPa 0,0 l/m 2,9 km/h (1 Bft) O-NO 67 9,9 C 10,1 C 5,1 km/h (1 Bft)
20.10.2019 01:19 11,5 C 10,0 C 10,5 C 11,1 C 12,3 C 12,8 C 76 % 99 % 88 % 95 % 82 % 1013,9 hPa 0,0 l/m 3,2 km/h (1 Bft) O 90 9,8 C 10,0 C 2,4 km/h (1 Bft)
20.10.2019 01:14 11,5 C 10,1 C 10,4 C 11,1 C 12,3 C 12,8 C 76 % 99 % 89 % 95 % 82 % 1013,9 hPa 0,0 l/m 4,2 km/h (1 Bft) O 90 9,9 C 10,1 C 11,6 km/h (2 Bft)
20.10.2019 01:09 11,4 C 10,1 C 10,5 C 11,1 C 12,3 C 12,8 C 76 % 99 % 89 % 95 % 82 % 1013,9 hPa 0,0 l/m 3,7 km/h (1 Bft) O-NO 67 9,9 C 10,1 C 7,5 km/h (2 Bft)
20.10.2019 01:04 11,5 C 10,1 C 10,5 C 11,1 C 12,3 C 12,8 C 76 % 99 % 89 % 95 % 82 % 1013,9 hPa 0,0 l/m 3,1 km/h (1 Bft) O-NO 67 9,9 C 10,1 C 5,6 km/h (1 Bft)
20.10.2019 01:00 11,5 C 10,1 C 10,5 C 11,1 C 12,3 C 12,8 C 76 % 99 % 88 % 95 % 82 % 1013,9 hPa 0,0 l/m 3,1 km/h (1 Bft) O-NO 67 9,9 C 10,1 C 6,5 km/h (2 Bft)
20.10.2019 00:58 11,5 C 10,1 C 10,5 C 11,1 C 12,3 C 12,8 C 76 % 99 % 88 % 95 % 82 % 1013,9 hPa 0,0 l/m 3,1 km/h (1 Bft) O-NO 67 9,9 C 10,1 C 6,5 km/h (2 Bft)
20.10.2019 00:56 11,5 C 10,1 C 10,5 C 11,1 C 12,3 C 12,8 C 76 % 99 % 88 % 95 % 82 % 1013,9 hPa 0,0 l/m 3,1 km/h (1 Bft) O-NO 67 9,9 C 10,1 C 5,1 km/h (1 Bft)
20.10.2019 00:54 11,5 C 10,1 C 10,5 C 11,1 C 12,3 C 12,8 C 76 % 99 % 89 % 95 % 82 % 1013,9 hPa 0,0 l/m 3,2 km/h (1 Bft) O-NO 67 9,9 C 10,1 C 6,3 km/h (2 Bft)
20.10.2019 00:52 11,5 C 10,1 C 10,5 C 11,1 C 12,3 C 12,8 C 76 % 99 % 88 % 95 % 82 % 1013,9 hPa 0,0 l/m 3,4 km/h (1 Bft) O-NO 67 9,9 C 10,1 C 6,3 km/h (2 Bft)
20.10.2019 00:50 11,5 C 10,1 C 10,5 C 11,1 C 12,3 C 12,8 C 76 % 99 % 88 % 95 % 82 % 1013,9 hPa 0,0 l/m 3,4 km/h (1 Bft) NO 45 9,9 C 10,1 C 5,6 km/h (1 Bft)
20.10.2019 00:48 11,5 C 10,1 C 10,5 C 11,1 C 12,3 C 12,8 C 76 % 99 % 88 % 95 % 82 % 1013,9 hPa 0,0 l/m 3,2 km/h (1 Bft) O-NO 67 9,9 C 10,1 C 5,8 km/h (2 Bft)
20.10.2019 00:46 11,5 C 10,1 C 10,6 C 11,1 C 12,3 C 12,8 C 76 % 99 % 88 % 95 % 82 % 1013,9 hPa 0,0 l/m 3,5 km/h (1 Bft) O 90 9,9 C 10,1 C 6,0 km/h (2 Bft)
20.10.2019 00:44 11,5 C 10,1 C 10,6 C 11,1 C 12,3 C 12,8 C 76 % 99 % 88 % 95 % 82 % 1013,9 hPa 0,0 l/m 3,5 km/h (1 Bft) NO 45 9,9 C 10,1 C 6,0 km/h (2 Bft)
20.10.2019 00:42 11,5 C 10,1 C 10,5 C 11,1 C 12,3 C 12,8 C 76 % 99 % 88 % 95 % 82 % 1013,9 hPa 0,0 l/m 3,2 km/h (1 Bft) O-NO 67 9,9 C 10,1 C 5,8 km/h (2 Bft)
20.10.2019 00:40 11,5 C 10,1 C 10,5 C 11,1 C 12,3 C 12,8 C 76 % 99 % 88 % 95 % 82 % 1013,9 hPa 0,0 l/m 3,4 km/h (1 Bft) NO 45 9,9 C 10,1 C 7,2 km/h (2 Bft)
20.10.2019 00:38 11,4 C 10,1 C 10,5 C 11,1 C 12,3 C 12,8 C 76 % 99 % 88 % 95 % 82 % 1013,9 hPa 0,0 l/m 3,9 km/h (1 Bft) O-NO 67 9,9 C 10,1 C 10,6 km/h (2 Bft)
20.10.2019 00:36 11,4 C 10,1 C 10,5 C 11,1 C 12,3 C 12,8 C 76 % 99 % 88 % 95 % 82 % 1013,9 hPa 0,0 l/m 4,2 km/h (1 Bft) O-NO 67 9,9 C 10,1 C 10,6 km/h (2 Bft)
20.10.2019 00:34 11,5 C 10,1 C 10,5 C 11,1 C 12,3 C 12,8 C 76 % 99 % 88 % 95 % 82 % 1013,9 hPa 0,0 l/m 4,3 km/h (1 Bft) O-SO 112 9,9 C 10,1 C 3,4 km/h (1 Bft)
20.10.2019 00:32 11,5 C 10,1 C 10,5 C 11,1 C 12,3 C 12,8 C 76 % 99 % 88 % 95 % 82 % 1013,9 hPa 0,0 l/m 4,8 km/h (1 Bft) O 90 9,9 C 10,1 C 12,3 km/h (3 Bft)
20.10.2019 00:30 11,5 C 10,1 C 10,5 C 11,1 C 12,3 C 12,8 C 76 % 99 % 88 % 95 % 82 % 1013,9 hPa 0,0 l/m 5,3 km/h (1 Bft) N-NO 22 9,9 C 10,1 C 8,9 km/h (2 Bft)
20.10.2019 00:28 11,5 C 10,1 C 10,5 C 11,1 C 12,3 C 12,8 C 76 % 99 % 88 % 95 % 82 % 1013,9 hPa 0,0 l/m 5,5 km/h (1 Bft) NO 45 9,9 C 10,1 C 11,6 km/h (2 Bft)
20.10.2019 00:26 11,5 C 10,1 C 10,5 C 11,1 C 12,3 C 12,8 C 76 % 99 % 88 % 95 % 82 % 1013,9 hPa 0,0 l/m 5,3 km/h (1 Bft) O-NO 67 9,9 C 10,1 C 11,6 km/h (2 Bft)
20.10.2019 00:24 11,5 C 10,1 C 10,5 C 11,1 C 12,3 C 12,8 C 76 % 99 % 88 % 95 % 82 % 1013,9 hPa 0,0 l/m 5,0 km/h (1 Bft) O-NO 67 9,9 C 10,1 C 11,6 km/h (2 Bft)
20.10.2019 00:22 11,5 C 10,0 C 10,5 C 11,1 C 12,3 C 12,8 C 76 % 99 % 88 % 95 % 82 % 1013,9 hPa 0,0 l/m 5,0 km/h (1 Bft) O-NO 67 9,8 C 10,0 C 11,3 km/h (2 Bft)
20.10.2019 00:20 11,5 C 10,0 C 10,5 C 11,1 C 12,3 C 12,8 C 76 % 99 % 88 % 95 % 82 % 1013,9 hPa 0,0 l/m 5,5 km/h (1 Bft) O-NO 67 9,8 C 10,0 C 9,7 km/h (2 Bft)
20.10.2019 00:18 11,5 C 10,1 C 10,5 C 11,1 C 12,3 C 12,8 C 76 % 99 % 88 % 95 % 82 % 1014,2 hPa 0,0 l/m 5,8 km/h (2 Bft) O-NO 67 9,9 C 10,1 C 9,7 km/h (2 Bft)
20.10.2019 00:16 11,5 C 10,0 C 10,5 C 11,1 C 12,3 C 12,8 C 76 % 99 % 88 % 95 % 82 % 1014,2 hPa 0,0 l/m 5,6 km/h (1 Bft) O-NO 67 9,8 C 10,0 C 9,2 km/h (2 Bft)
20.10.2019 00:14 11,5 C 10,1 C 10,5 C 11,1 C 12,3 C 12,8 C 76 % 99 % 88 % 95 % 82 % 1014,2 hPa 0,0 l/m 5,6 km/h (1 Bft) NO 45 9,9 C 10,1 C 11,3 km/h (2 Bft)
20.10.2019 00:12 11,5 C 10,1 C 10,4 C 11,1 C 12,3 C 12,8 C 76 % 99 % 88 % 95 % 82 % 1014,2 hPa 0,0 l/m 5,6 km/h (1 Bft) NO 45 9,9 C 10,1 C 11,3 km/h (2 Bft)
20.10.2019 00:10 11,5 C 10,1 C 10,4 C 11,1 C 12,3 C 12,8 C 76 % 99 % 88 % 95 % 82 % 1014,2 hPa 0,0 l/m 5,1 km/h (1 Bft) O-NO 67 9,9 C 10,1 C 7,0 km/h (2 Bft)
20.10.2019 00:08 11,5 C 10,1 C 10,4 C 11,1 C 12,3 C 12,8 C 76 % 99 % 88 % 95 % 82 % 1014,2 hPa 0,0 l/m 5,1 km/h (1 Bft) O-NO 67 9,9 C 10,1 C 7,0 km/h (2 Bft)
20.10.2019 00:06 11,5 C 10,1 C 10,4 C 11,1 C 12,3 C 12,8 C 76 % 99 % 88 % 95 % 82 % 1014,2 hPa 0,0 l/m 5,1 km/h (1 Bft) O-NO 67 9,9 C 10,1 C 7,0 km/h (2 Bft)
20.10.2019 00:04 11,5 C 10,1 C 10,4 C 11,1 C 12,3 C 12,8 C 76 % 99 % 88 % 95 % 82 % 1014,2 hPa 0,0 l/m 5,1 km/h (1 Bft) O-NO 67 9,9 C 10,1 C 7,0 km/h (2 Bft)
20.10.2019 00:02 11,5 C 10,1 C 10,4 C 11,1 C 12,3 C 12,8 C 76 % 99 % 88 % 95 % 82 % 1014,2 hPa 0,0 l/m 5,1 km/h (1 Bft) O-NO 67 9,9 C 10,1 C 7,7 km/h (2 Bft)
20.10.2019 00:00 11,5 C 10,1 C 10,5 C 11,1 C 12,3 C 12,8 C 76 % 99 % 88 % 95 % 82 % 1014,2 hPa 0,0 l/m 5,1 km/h (1 Bft) O-NO 67 9,9 C 10,1 C 7,7 km/h (2 Bft)
_ Min-Zeit 06:58 08:14 07:32 00:00 12:36 12:46 15:30 15:30 12:14 11:52 00:00 03:59 - 14:10 - - 08:14 08:14 15:36
Minimum _ 11,1 C 9,1 C 9,8 C 11,1 C 12,1 C 12,4 C 75 % 79 % 87 % 94 % 82 % 1013,2 hPa - 0,8 km/h (0 Bft) - - 9,0 C 9,1 C 0,0 km/h (0 Bft)
_ Max-Zeit 16:34 16:04 15:18 15:34 00:00 17:42 02:44 12:28 00:54 00:00 14:50 17:20 00:00 19:00 - - 13:40 16:04 18:58
Maximum _ 13,9 C 14,2 C 20,2 C 11,3 C 12,3 C 13,5 C 77 % 100 % 89 % 95 % 87 % 1015,9 hPa 0,0 l/m 6,0 km/h
O-NO (2 Bft)
- - 11,2 C 14,2 C 13,8 km/h
O-NO (3 Bft)
Durchschnitt _ 11,9 C 10,7 C 12,2 C 11,1 C 12,3 C 12,8 C 77 % 95 % 89 % 95 % 84 % 1014,4 hPa #0,0 l/m 3,6 km/h (1 Bft) O-NO - 9,8 C 10,7 C 7,0 km/h (2 Bft)